GEFSMA_850_meantemp_006.txt.gz
Temperature
14 14 14 13 13 13 13 13 13 13 13 13 13 13 14 14 14 14 14 14 14 15 15 15 15 15 15 16 16 16 16 15 15 15 16 16 16 16 16 16 16 17 16
13 14 14 13 13 13 13 13 13 13 13 13 13 13 13 14 14 14 14 14 14 14 14 14 14 15 15 15 16 16 16 15 15 15 15 16 16 16 16 16 16 16 16
13 13 13 13 13 12 12 12 12 12 12 12 13 13 13 13 13 13 14 14 14 14 14 14 14 14 14 15 15 15 15 15 15 15 15 15 16 16 16 16 16 16 16
13 13 13 13 12 12 12 12 12 12 12 12 12 13 13 13 13 13 13 14 14 14 14 14 14 14 14 14 15 15 15 15 15 15 15 15 15 15 15 15 15 15 15
12 12 12 12 12 12 11 12 12 12 12 12 12 12 12 13 13 13 13 13 13 13 14 14 13 13 14 14 14 14 14 14 14 14 14 14 14 14 14 15 15 15 15
11 11 11 12 12 11 11 11 11 11 11 12 12 12 12 12 12 13 13 13 13 13 13 13 13 13 13 13 13 13 14 13 13 13 14 14 14 14 14 14 14 14 15
10 10 10 11 11 11 10 11 11 11 11 11 11 11 12 12 12 12 12 12 13 13 13 13 13 13 13 13 13 13 13 13 13 13 13 14 14 14 14 14 14 14 14
8 9 9 10 10 10 10 10 10 11 11 11 10 10 11 11 12 12 12 12 12 12 12 12 12 12 12 12 12 12 13 13 13 13 13 13 13 13 13 14 14 14 14
7 8 9 9 10 10 10 10 10 10 10 10 10 10 10 11 11 11 12 12 12 12 12 12 12 12 12 12 12 12 12 12 12 12 13 13 13 13 13 13 13 14 14
6 7 8 8 9 9 9 9 9 10 10 10 10 10 10 10 10 10 10 10 11 11 11 11 12 12 12 12 12 12 12 12 12 12 12 12 13 13 13 12 13 13 13
5 6 6 7 8 8 9 9 9 9 9 9 9 9 9 9 9 10 9 9 10 10 10 11 11 11 11 11 11 11 11 11 11 11 12 12 12 12 12 12 12 12 12
4 4 5 6 6 7 8 9 9 9 9 9 9 9 9 9 9 9 9 9 9 9 9 9 9 10 10 10 10 10 10 10 11 11 11 11 11 11 11 11 11 11 11
3 4 4 5 5 6 6 7 8 8 8 8 8 8 8 8 8 8 8 9 9 9 9 9 9 9 9 9 9 9 9 10 10 10 10 10 10 10 10 10 10 10 11
1 2 3 4 5 5 5 6 7 7 7 7 7 7 7 7 7 8 8 8 8 8 8 8 8 9 9 9 9 9 9 9 9 9 9 9 9 9 9 9 9 10 10
-2 -0 2 3 4 4 5 6 7 7 7 7 7 7 7 7 7 7 7 7 7 7 7 8 8 8 8 8 8 8 8 7 8 8 8 8 8 8 8 8 8 8 9
-4 -3 -1 1 2 3 4 5 6 6 7 7 7 6 6 6 6 6 6 6 6 7 7 7 7 8 8 7 7 7 7 7 7 7 7 7 7 7 7 7 8 8 8
-3 -2 -1 0 2 2 3 4 4 5 6 6 6 6 6 5 5 5 6 6 6 6 6 6 7 7 7 7 7 7 7 7 7 7 7 6 6 6 7 7 7 7 7
-3 -2 -1 0 1 1 2 3 3 4 4 5 5 5 5 4 3 3 4 5 5 5 6 6 6 6 7 7 7 7 7 7 7 6 6 6 6 6 6 6 6 6 7
-3 -2 -1 -1 -0 0 1 2 2 3 3 3 4 4 3 2 1 2 3 4 4 5 5 5 5 6 6 6 6 6 6 6 6 6 6 6 5 5 5 5 5 6 6
-4 -3 -2 -2 -1 -1 -0 0 0 1 1 1 1 1 1 0 0 1 2 2 3 3 4 4 5 5 5 5 6 6 5 5 5 5 5 5 5 5 5 5 5 5 5
-5 -5 -4 -4 -3 -3 -3 -2 -1 -1 -1 -1 -1 -1 -1 -1 -1 -0 0 1 1 2 2 3 4 4 4 4 5 5 5 4 4 4 4 4 4 4 4 4 4 4 4
-6 -6 -5 -5 -5 -5 -5 -4 -4 -4 -4 -3 -3 -3 -2 -2 -2 -2 -1 -1 -0 -0 1 1 2 2 3 3 3 4 4 4 3 3 3 3 3 3 3 3 3 3 3
-7 -7 -6 -6 -6 -6 -6 -6 -5 -5 -6 -6 -6 -5 -5 -4 -4 -3 -3 -2 -2 -2 -2 -1 -0 0 1 1 1 2 2 3 2 2 2 2 2 2 2 2 2 3 2
-8 -8 -8 -7 -7 -7 -7 -7 -7 -7 -7 -7 -7 -7 -6 -6 -5 -5 -4 -4 -4 -4 -4 -3 -2 -2 -2 -1 -1 -0 0 1 1 1 1 1 1 1 1 1 1 2 1
-9 -8 -8 -8 -8 -8 -8 -8 -8 -8 -8 -8 -8 -8 -8 -8 -8 -6 -6 -6 -5 -5 -5 -5 -4 -4 -4 -3 -2 -2 -2 -1 -1 -1 -1 -1 -0 0 0 -0 0 1 0
-10 -10 -10 -10 -10 -9 -9 -9 -9 -9 -9 -9 -9 -9 -9 -9 -9 -8 -7 -7 -6 -6 -6 -6 -6 -6 -5 -5 -5 -4 -4 -3 -3 -3 -3 -3 -2 -1 -1 -0 -0 -0 -0

GEFSMA_850_meantemp_012.txt.gz
Temperature
12 12 12 12 12 12 13 13 13 13 13 13 13 13 13 13 13 13 14 14 14 14 14 14 15 15 15 15 15 16 16 16 16 16 15 15 15 15 16 16 16 16 17
12 12 12 12 12 12 12 12 12 12 12 12 12 12 12 12 13 13 13 14 14 14 14 14 15 15 15 15 15 15 15 16 16 16 15 15 15 15 16 16 16 16 16
11 11 12 12 12 12 12 12 12 12 12 12 12 12 12 12 12 12 12 13 13 13 13 14 14 14 15 15 15 15 15 15 16 16 15 15 15 15 15 15 16 16 16
10 10 10 11 12 12 12 11 11 11 12 12 12 12 12 12 12 12 12 12 13 13 13 13 14 14 14 14 14 14 15 15 15 15 15 15 15 15 15 15 15 16 16
8 8 8 9 10 11 11 11 11 11 11 11 11 11 11 11 12 12 12 12 12 13 13 13 14 14 14 14 14 14 14 15 15 15 15 15 15 15 15 15 15 15 15
6 6 6 7 8 9 10 10 10 10 10 11 11 11 11 11 11 11 12 12 12 13 13 13 13 13 13 13 14 14 14 14 14 14 15 15 15 15 14 14 14 14 15
4 4 5 6 6 7 8 9 9 10 10 10 10 10 11 11 11 11 12 12 12 12 13 13 13 13 13 13 13 13 13 14 14 14 14 14 14 14 14 14 14 14 14
2 3 3 4 5 6 7 8 8 9 9 9 9 9 10 10 11 11 11 12 12 12 12 13 13 13 13 13 13 13 13 13 13 13 13 13 13 13 13 13 13 14 14
2 2 2 3 3 4 5 6 7 8 8 9 9 9 9 10 10 11 11 11 12 12 12 12 12 13 13 13 13 13 13 13 13 13 13 13 13 13 13 13 13 13 13
1 1 1 2 3 3 4 5 6 6 7 7 8 8 9 9 10 10 10 11 11 11 12 12 12 12 12 12 13 13 13 13 13 13 13 13 13 13 13 13 13 13 13
-2 -2 -1 0 2 2 3 4 5 6 6 6 7 7 8 8 9 10 10 10 10 11 11 11 11 12 12 12 12 12 13 13 13 12 12 12 12 12 12 12 12 13 13
-5 -4 -3 -2 -1 1 2 3 3 4 5 6 6 7 7 8 8 9 9 9 10 10 10 10 10 11 11 12 12 12 12 12 12 12 12 12 12 12 12 12 12 12 12
-6 -5 -4 -3 -2 -2 -0 1 2 3 4 5 6 6 6 7 8 9 9 9 9 9 9 9 9 10 10 11 11 11 11 11 11 11 11 11 11 11 11 12 12 12 12
-6 -6 -5 -4 -3 -2 -2 -1 1 2 3 4 5 5 6 6 7 8 9 9 9 8 8 9 9 9 9 9 10 10 10 10 10 10 10 10 10 10 10 11 11 11 11
-7 -6 -5 -4 -3 -2 -2 -1 -1 1 2 3 4 5 5 5 6 7 8 8 8 8 8 8 8 9 9 9 9 9 9 9 9 9 9 9 9 9 10 10 10 10 11
-7 -6 -6 -5 -3 -2 -2 -1 -1 0 1 3 3 4 4 5 6 6 7 7 7 8 7 7 8 8 8 8 8 8 8 8 8 8 8 9 9 9 9 9 9 9 9
-7 -7 -6 -5 -4 -3 -2 -2 -1 -0 1 2 2 3 3 4 5 6 6 6 6 7 7 7 7 7 7 7 7 7 7 7 7 7 7 8 8 8 8 8 8 8 8
-7 -7 -6 -6 -5 -4 -4 -3 -2 -1 0 1 1 2 2 3 4 4 5 5 6 6 6 6 6 6 7 7 7 7 7 7 7 7 7 7 7 7 7 7 7 7 7
-8 -7 -7 -6 -6 -5 -5 -4 -3 -2 -2 -1 -0 0 1 1 2 3 3 4 4 5 5 5 5 6 6 6 6 6 6 6 6 6 6 6 6 6 6 6 6 6 6
-9 -8 -7 -7 -6 -6 -6 -5 -5 -4 -3 -2 -2 -1 -1 -0 0 1 2 3 3 4 4 4 5 5 5 6 6 6 6 6 6 6 5 5 5 5 5 5 5 6 6
-10 -9 -8 -7 -7 -6 -6 -6 -6 -5 -5 -4 -3 -3 -2 -2 -1 -0 0 1 2 2 2 3 3 4 4 5 5 5 5 5 5 5 5 5 5 5 5 5 5 5 5
-10 -10 -9 -8 -7 -7 -6 -7 -7 -7 -6 -6 -5 -5 -4 -3 -2 -2 -1 -1 -0 0 1 1 2 2 3 3 4 5 5 5 4 4 4 4 4 4 4 4 4 4 4
-11 -11 -10 -9 -8 -8 -7 -8 -8 -8 -8 -8 -7 -6 -6 -5 -4 -3 -3 -2 -2 -1 -1 0 1 1 2 2 3 3 4 4 4 4 4 4 3 3 3 3 3 3 3
-12 -12 -11 -10 -9 -9 -8 -8 -9 -9 -9 -9 -9 -9 -8 -7 -6 -5 -5 -4 -4 -3 -2 -2 -1 -1 -0 0 1 2 2 3 3 3 3 3 2 2 2 2 2 2 2
-13 -12 -12 -11 -11 -10 -9 -9 -9 -9 -9 -9 -9 -9 -8 -8 -8 -7 -6 -6 -5 -5 -5 -4 -3 -3 -2 -2 -1 0 1 1 2 1 1 1 1 1 1 1 1 1 1
-14 -13 -13 -12 -12 -11 -10 -9 -9 -9 -10 -10 -10 -9 -9 -9 -9 -8 -8 -7 -6 -6 -6 -6 -5 -5 -4 -4 -3 -2 -1 -1 0 0 -0 0 0 -0 -0 -0 -1 -0 -0

GEFSMA_850_meantemp_018.txt.gz
Temperature
9 10 10 10 10 11 11 12 12 12 12 12 12 12 13 13 13 13 13 13 14 15 15 15 15 15 15 15 15 15 15 16 16 16 16 16 16 15 15 15 16 16 16
7 7 8 8 9 10 10 11 11 11 12 12 12 12 12 12 12 12 12 13 13 14 15 15 15 15 15 15 15 15 15 15 16 16 16 16 15 15 15 15 16 16 16
4 5 5 6 6 7 8 9 10 10 11 11 12 12 12 12 12 12 12 12 12 13 14 14 15 15 15 15 15 15 15 15 15 16 16 15 15 15 15 15 15 16 16
2 3 3 4 4 5 6 6 7 8 9 10 10 11 11 11 12 12 12 12 12 12 13 13 14 14 15 15 15 15 15 15 15 15 15 15 15 15 15 15 15 15 16
1 1 2 2 3 3 4 4 5 6 7 8 9 10 10 11 11 12 12 12 12 12 12 12 13 13 14 14 14 15 15 15 15 15 15 15 15 15 15 15 15 15 15
-0 0 0 1 2 2 2 3 3 4 5 6 7 9 10 10 11 11 11 12 12 12 12 12 12 13 13 14 14 14 15 15 14 14 15 15 15 14 14 15 15 15 15
-2 -2 -2 -1 -0 -0 1 1 2 3 4 5 6 7 9 10 10 10 11 11 11 12 12 12 12 12 12 13 13 14 14 14 14 14 14 14 15 14 14 14 15 15 15
-3 -4 -4 -4 -3 -3 -1 -1 0 1 2 3 3 5 9 10 10 10 10 11 11 11 11 12 12 12 12 12 13 13 14 14 14 14 14 14 14 14 14 14 14 14 14
-4 -5 -5 -5 -5 -4 -4 -3 -2 -2 -1 2 2 3 7 10 11 11 10 10 11 11 11 11 12 12 12 12 12 13 13 13 14 14 14 14 14 14 14 14 14 14 14
-5 -6 -6 -6 -5 -5 -5 -4 -3 -3 -2 -1 1 2 3 6 8 10 11 10 10 11 11 11 12 12 12 12 12 13 13 13 13 14 14 14 14 14 14 14 14 14 14
-6 -6 -6 -6 -6 -5 -5 -4 -3 -3 -3 -2 -2 -0 1 3 5 7 9 10 10 10 11 11 11 12 12 12 12 13 13 13 13 13 14 14 14 14 14 13 13 13 13
-7 -7 -7 -7 -6 -6 -5 -4 -3 -3 -3 -2 -2 -1 -0 1 4 6 7 9 10 10 10 10 11 11 11 12 12 13 13 13 13 13 13 13 14 14 13 13 13 13 13
-9 -8 -8 -7 -7 -6 -5 -4 -4 -3 -2 -2 -2 -1 -1 0 2 4 6 7 9 9 9 9 10 11 11 11 12 12 12 13 13 13 13 13 13 13 13 13 13 13 13
-10 -9 -9 -8 -7 -6 -5 -5 -4 -3 -2 -2 -1 -1 -1 -0 1 2 4 6 7 8 9 9 9 10 10 11 11 12 12 12 13 13 13 13 13 13 13 13 12 12 12
-10 -9 -9 -8 -7 -7 -6 -6 -5 -4 -3 -2 -1 -1 -1 -0 1 2 3 4 5 7 8 9 8 9 10 10 11 11 11 12 12 13 13 13 13 12 12 12 12 12 12
-11 -10 -9 -8 -8 -7 -6 -6 -6 -5 -4 -3 -2 -1 -0 0 1 2 2 3 4 5 6 8 8 8 9 10 10 10 10 11 11 12 12 12 12 12 12 12 11 11 11
-12 -11 -10 -9 -8 -8 -7 -7 -6 -6 -5 -4 -3 -2 -1 -0 1 1 2 3 3 4 5 6 7 8 9 9 9 9 9 9 9 10 11 11 11 11 11 11 10 10 10
-12 -12 -11 -9 -8 -8 -7 -7 -7 -7 -6 -5 -4 -3 -2 -1 -0 1 2 2 3 4 4 5 5 7 8 8 8 8 8 8 8 8 9 9 9 9 9 9 9 8 8
-13 -12 -11 -10 -9 -8 -8 -8 -7 -7 -6 -6 -5 -4 -3 -2 -1 -0 1 2 2 3 4 4 5 6 7 8 8 8 7 7 7 7 7 7 7 7 7 7 7 7 7
-13 -13 -12 -11 -10 -9 -8 -8 -8 -7 -7 -6 -6 -5 -4 -3 -2 -1 -0 1 2 2 3 4 4 5 6 7 7 7 6 6 6 6 6 6 6 6 6 6 6 6 6
-14 -13 -13 -12 -11 -10 -9 -8 -8 -8 -8 -8 -7 -6 -5 -4 -3 -2 -1 -0 1 2 2 3 4 5 5 5 6 6 6 6 5 5 5 5 5 5 5 5 5 5 5
-14 -13 -13 -13 -12 -11 -10 -8 -8 -8 -8 -8 -8 -7 -6 -5 -4 -3 -2 -1 -1 0 1 2 3 3 4 4 5 5 5 5 5 4 4 4 4 4 4 4 4 4 4
-14 -14 -14 -13 -12 -12 -10 -9 -8 -9 -9 -9 -8 -8 -7 -7 -5 -4 -3 -2 -2 -1 -0 1 1 2 3 3 4 5 5 5 4 4 4 4 4 4 4 4 4 4 4
-15 -14 -14 -13 -12 -12 -11 -9 -9 -9 -9 -9 -8 -8 -8 -7 -7 -5 -4 -4 -3 -3 -2 -1 -0 -0 1 2 3 3 4 4 4 4 4 3 2 2 3 3 3 3 3
-14 -14 -14 -13 -13 -12 -11 -10 -9 -9 -9 -9 -8 -8 -8 -8 -8 -7 -6 -5 -5 -4 -4 -3 -2 -2 -1 0 1 2 3 3 3 3 3 3 2 2 1 1 2 2 2
-14 -14 -14 -13 -13 -12 -12 -10 -10 -9 -9 -9 -9 -9 -9 -9 -8 -8 -8 -7 -7 -6 -6 -5 -4 -3 -2 -1 -0 1 1 2 2 2 2 2 1 1 1 0 1 1 2

GEFSMA_850_meantemp_024.txt.gz
Temperature
1 1 2 3 3 4 5 6 7 8 9 10 10 10 11 12 12 13 13 13 14 14 14 15 15 15 15 15 15 15 16 16 16 16 16 16 16 16 16 16 16 16 16
-1 -0 0 1 1 1 2 4 4 5 7 8 9 10 10 11 11 12 13 13 13 13 14 14 15 15 15 15 15 15 15 15 16 16 16 16 16 16 16 16 16 16 16
-2 -2 -2 -1 -1 -1 0 1 2 3 4 6 7 9 9 10 11 11 12 12 13 13 13 14 14 14 15 15 15 15 15 15 15 16 16 16 16 16 16 16 16 16 16
-3 -3 -3 -3 -3 -2 -2 -1 0 1 3 4 5 7 8 9 10 10 11 12 12 12 13 13 13 14 14 15 15 15 15 15 15 15 16 16 16 16 16 16 16 16 16
-4 -4 -4 -4 -4 -3 -3 -3 -2 -1 0 2 3 5 6 8 9 10 10 11 12 12 12 12 13 13 13 14 15 15 15 15 15 15 15 15 16 16 16 16 15 15 16
-5 -5 -5 -5 -5 -5 -4 -4 -4 -3 -2 -1 1 2 5 6 8 9 10 10 11 12 12 12 12 12 13 13 14 15 15 15 15 15 15 15 15 16 16 16 15 15 15
-6 -6 -6 -6 -6 -6 -6 -5 -5 -4 -3 -2 -1 1 4 6 7 9 10 10 10 11 11 12 12 12 12 12 13 14 14 15 15 15 15 15 15 15 16 15 15 15 15
-7 -7 -7 -7 -7 -7 -6 -6 -5 -5 -4 -4 -3 -2 -0 3 6 8 9 10 10 10 11 11 11 12 12 12 12 13 14 14 15 15 14 15 15 15 15 16 15 15 15
-8 -8 -8 -8 -8 -7 -7 -7 -6 -5 -5 -4 -3 -3 -2 1 1 7 8 9 10 10 11 11 11 11 11 12 12 12 13 14 14 15 14 14 14 15 15 15 15 15 15
-9 -9 -8 -8 -8 -8 -8 -7 -6 -6 -5 -4 -4 -3 -3 -2 -1 1 6 8 8 9 10 11 11 11 11 11 12 12 12 13 14 14 14 14 14 14 14 15 15 15 15
-9 -9 -9 -9 -9 -9 -8 -8 -7 -6 -5 -5 -5 -4 -3 -2 -2 -2 0 6 7 8 9 10 10 11 11 11 11 12 12 12 13 13 14 14 14 14 14 14 14 15 15
-10 -10 -10 -10 -10 -9 -9 -8 -7 -6 -6 -5 -5 -4 -4 -3 -2 -2 -1 1 2 5 7 8 10 10 11 11 11 11 12 12 12 13 13 14 14 14 14 14 14 14 15
-11 -11 -11 -11 -10 -10 -9 -9 -8 -7 -6 -6 -5 -5 -4 -4 -3 -2 -1 -1 0 3 5 7 9 9 10 10 11 11 11 12 12 12 13 13 13 14 14 14 14 14 14
-12 -12 -12 -12 -11 -11 -10 -9 -8 -7 -7 -6 -6 -6 -5 -4 -3 -2 -1 -1 -0 1 3 6 8 9 9 10 10 10 11 11 12 12 12 12 13 13 13 13 14 14 14
-12 -12 -12 -12 -12 -11 -10 -9 -9 -8 -7 -7 -7 -6 -6 -5 -3 -2 -2 -1 -1 0 2 5 7 8 9 9 10 10 10 11 11 12 12 12 12 13 13 13 13 13 13
-12 -12 -12 -12 -12 -12 -11 -10 -9 -8 -8 -7 -7 -7 -6 -5 -4 -3 -2 -1 -0 -0 1 3 5 7 8 8 9 9 10 10 11 11 12 12 12 12 12 13 13 13 13
-13 -13 -13 -13 -13 -12 -11 -10 -9 -8 -8 -8 -8 -7 -7 -6 -5 -4 -2 -1 -0 0 1 2 4 6 7 7 8 8 9 10 10 11 11 12 12 12 12 12 12 13 13
-13 -13 -13 -13 -13 -12 -11 -11 -9 -9 -8 -8 -8 -7 -7 -6 -5 -4 -3 -2 -1 0 1 1 3 4 6 6 7 8 8 9 9 10 11 11 12 12 12 12 12 12 12
-13 -13 -14 -14 -13 -12 -11 -10 -10 -9 -8 -8 -8 -8 -7 -6 -5 -4 -3 -2 -1 -1 0 1 2 3 5 6 6 7 7 8 9 9 10 11 11 12 12 12 12 12 12
-14 -14 -14 -14 -13 -12 -11 -10 -9 -8 -8 -8 -8 -8 -7 -6 -6 -5 -4 -3 -2 -1 -0 0 2 3 4 5 6 6 7 7 8 8 9 9 10 11 11 12 12 12 11
-14 -14 -14 -13 -13 -12 -12 -10 -9 -8 -8 -8 -8 -8 -7 -7 -6 -5 -4 -4 -3 -2 -1 -0 1 2 3 4 5 6 6 7 7 8 8 8 9 9 10 10 10 10 10
-14 -14 -14 -13 -13 -12 -11 -10 -9 -8 -8 -8 -8 -8 -8 -7 -7 -6 -6 -5 -4 -3 -3 -1 -0 1 2 3 4 5 5 6 6 7 7 8 8 8 8 9 9 9 9
-14 -14 -14 -13 -13 -12 -11 -10 -9 -9 -9 -9 -9 -9 -9 -8 -8 -7 -7 -6 -5 -5 -4 -3 -2 -0 1 2 3 4 5 6 6 6 6 6 6 6 7 7 7 7 7
-14 -14 -13 -13 -13 -12 -11 -10 -9 -9 -9 -9 -9 -9 -9 -9 -8 -8 -8 -7 -6 -6 -6 -5 -3 -2 -1 0 2 3 4 5 6 5 6 5 5 5 5 5 5 5 5
-13 -13 -13 -13 -13 -12 -11 -10 -10 -9 -9 -10 -9 -9 -9 -9 -9 -9 -9 -8 -7 -6 -6 -5 -4 -3 -2 -0 2 3 4 4 4 4 4 4 4 4 4 4 4 4 3
-13 -13 -13 -13 -13 -12 -12 -10 -10 -10 -10 -10 -10 -10 -10 -10 -10 -10 -10 -10 -9 -8 -7 -5 -4 -3 -2 -1 1 2 3 3 4 3 3 3 3 3 3 2 2 2 2

GEFSMA_850_meantemp_030.txt.gz
Temperature
-2 -2 -2 -2 -2 -2 -1 0 1 1 2 3 4 5 7 8 9 10 10 11 12 12 13 13 14 14 15 15 15 15 15 15 16 16 16 16 16 16 16 16 16 16 16
-3 -3 -3 -3 -4 -4 -3 -2 -1 -1 1 1 2 3 5 6 8 9 10 10 11 12 12 13 13 14 14 15 15 15 15 15 15 16 16 16 16 16 16 16 16 16 16
-4 -4 -4 -4 -5 -5 -5 -4 -4 -2 -1 0 1 2 3 5 6 8 9 10 10 11 12 12 13 13 14 14 14 15 15 15 15 15 16 16 16 16 16 16 16 16 16
-5 -5 -5 -6 -6 -6 -6 -6 -6 -5 -4 -2 -1 1 2 4 5 7 8 9 10 10 11 12 12 13 13 14 14 14 15 15 15 15 15 15 16 16 16 16 16 16 16
-5 -6 -6 -7 -7 -6 -6 -7 -7 -7 -6 -5 -4 -2 1 2 4 5 7 8 9 10 10 11 11 12 12 13 13 14 14 15 15 14 14 15 15 16 16 16 16 16 16
-6 -7 -8 -8 -8 -7 -7 -7 -8 -7 -7 -6 -5 -4 -1 1 3 4 5 7 8 9 9 10 11 11 12 12 13 13 14 14 14 14 14 14 15 15 16 16 16 16 16
-7 -8 -8 -9 -9 -9 -9 -8 -8 -8 -7 -7 -6 -5 -2 0 2 2 3 5 6 8 9 9 10 10 11 11 12 13 13 14 14 14 14 14 14 15 15 15 16 16 16
-8 -9 -9 -9 -10 -10 -9 -9 -9 -9 -8 -7 -7 -6 -5 -3 -0 1 2 3 4 6 7 8 9 9 10 11 11 12 12 13 13 14 14 14 14 14 15 15 15 15 16
-9 -10 -10 -10 -10 -10 -10 -10 -10 -10 -9 -8 -7 -6 -5 -4 -5 -1 0 1 2 3 5 7 8 9 9 10 10 11 12 12 13 13 14 14 14 14 14 15 15 15 15
-10 -10 -11 -11 -11 -11 -11 -11 -11 -10 -10 -9 -8 -7 -6 -6 -5 -4 -3 -1 0 2 3 5 7 8 9 9 10 10 11 12 12 13 13 14 14 14 14 14 15 15 15
-10 -11 -11 -12 -12 -12 -12 -11 -11 -10 -10 -9 -8 -8 -7 -6 -6 -5 -4 -3 -1 1 2 3 5 7 8 9 9 10 10 11 12 12 13 13 14 14 14 14 15 15 15
-11 -11 -12 -12 -12 -12 -12 -12 -11 -11 -10 -9 -9 -8 -7 -7 -6 -6 -6 -5 -4 -2 1 3 4 6 7 8 9 9 10 11 11 12 12 13 13 14 14 14 14 14 15
-13 -13 -13 -13 -13 -13 -12 -12 -12 -11 -10 -10 -9 -8 -8 -7 -7 -7 -6 -5 -5 -4 -2 1 3 4 6 7 8 9 9 10 11 11 12 12 13 13 13 14 14 14 14
-13 -13 -13 -13 -13 -13 -13 -12 -12 -11 -10 -10 -9 -8 -8 -8 -7 -7 -6 -6 -5 -4 -3 -2 1 3 4 6 7 8 9 10 10 11 11 11 12 12 13 13 14 14 14
-14 -14 -14 -14 -13 -13 -13 -12 -12 -11 -10 -9 -9 -8 -8 -8 -7 -7 -7 -6 -5 -4 -3 -3 -1 1 3 5 6 8 9 9 10 10 11 11 11 12 12 13 13 14 14
-14 -14 -14 -14 -13 -13 -13 -12 -12 -11 -10 -9 -9 -8 -8 -8 -7 -7 -6 -6 -5 -4 -4 -3 -2 -1 2 4 5 7 8 9 9 10 11 11 11 11 12 12 13 13 13
-14 -14 -14 -14 -13 -13 -13 -12 -11 -10 -10 -9 -9 -8 -8 -8 -7 -7 -6 -6 -5 -5 -4 -3 -2 -1 0 3 4 5 6 8 9 9 10 11 11 11 11 12 12 12 13
-14 -14 -14 -13 -13 -13 -12 -12 -11 -10 -9 -9 -9 -8 -8 -7 -7 -7 -6 -6 -5 -4 -4 -3 -2 -2 -0 1 2 3 5 7 8 9 9 10 11 11 11 11 12 12 12
-13 -13 -13 -13 -13 -12 -12 -11 -10 -10 -9 -9 -9 -8 -8 -8 -7 -7 -6 -6 -5 -4 -4 -3 -3 -2 -1 0 1 2 3 5 7 8 9 9 10 11 11 11 12 12 12
-13 -13 -13 -13 -12 -12 -11 -10 -10 -9 -9 -9 -9 -9 -8 -8 -8 -7 -7 -6 -6 -5 -4 -3 -3 -2 -1 -0 0 1 2 4 6 7 8 9 10 10 11 11 11 12 12
-13 -13 -12 -12 -12 -11 -10 -10 -9 -9 -9 -9 -9 -9 -9 -9 -9 -8 -8 -7 -7 -6 -5 -4 -3 -2 -1 -0 0 1 2 4 5 7 8 9 9 10 11 11 11 11 12
-13 -12 -12 -12 -11 -11 -10 -10 -10 -10 -10 -9 -9 -9 -9 -9 -9 -9 -8 -8 -8 -7 -7 -5 -4 -3 -2 -1 0 1 2 3 5 6 7 8 8 9 10 11 11 11 12
-13 -13 -12 -12 -11 -10 -10 -10 -10 -10 -10 -10 -10 -10 -10 -10 -10 -9 -9 -8 -7 -7 -7 -7 -6 -5 -3 -2 -1 1 2 3 4 6 7 7 7 8 9 10 11 11 11
-13 -13 -13 -12 -11 -11 -10 -11 -11 -11 -10 -10 -10 -11 -11 -10 -10 -10 -9 -9 -8 -8 -7 -7 -7 -6 -5 -4 -2 0 2 3 4 5 6 7 7 7 8 8 9 10 11
-13 -13 -13 -12 -12 -11 -11 -11 -11 -11 -11 -11 -11 -11 -11 -11 -11 -11 -10 -9 -9 -8 -8 -7 -7 -7 -5 -4 -2 -1 1 2 4 4 5 6 6 7 7 7 8 8 9
-13 -13 -13 -13 -13 -12 -12 -11 -12 -12 -12 -12 -12 -12 -12 -12 -11 -11 -11 -10 -10 -9 -8 -7 -7 -6 -5 -4 -3 -1 0 2 3 4 5 5 6 6 5 6 6 7 8

GEFSMA_850_meantemp_036.txt.gz
Temperature
-2 -2 -2 -2 -2 -3 -2 -2 -2 -2 -1 -0 0 1 2 2 3 4 5 6 7 8 9 10 11 12 12 13 14 14 15 15 15 16 16 16 16 16 16 16 16 16 16
-3 -4 -4 -4 -4 -4 -4 -4 -4 -3 -3 -2 -1 -0 1 1 2 3 3 5 6 7 8 9 10 11 12 12 13 14 14 15 15 15 16 16 16 16 16 16 16 16 16
-5 -5 -5 -6 -6 -6 -6 -5 -5 -5 -4 -4 -3 -1 -1 0 1 2 2 3 5 6 7 8 9 10 11 12 12 13 14 14 15 15 15 16 16 16 16 16 16 16 16
-6 -6 -7 -7 -7 -7 -7 -7 -6 -6 -5 -5 -4 -3 -2 -1 0 1 1 2 3 4 5 7 8 9 10 11 12 13 13 14 14 15 15 15 15 16 16 16 16 16 16
-7 -7 -8 -8 -8 -8 -8 -8 -8 -8 -7 -7 -6 -5 -3 -2 -1 -1 -0 1 1 2 3 5 7 8 9 10 11 12 13 14 14 14 15 15 15 15 15 15 16 16 16
-8 -9 -9 -9 -10 -10 -10 -9 -9 -9 -9 -8 -8 -7 -5 -3 -2 -2 -2 -1 -1 0 1 3 5 7 9 10 10 11 12 13 14 14 14 15 15 15 15 15 15 16 16
-9 -10 -10 -10 -11 -11 -11 -11 -11 -10 -10 -10 -10 -9 -5 -4 -4 -4 -4 -3 -2 -2 -0 1 4 6 8 9 10 11 12 13 13 14 14 14 14 15 15 15 15 15 15
-10 -10 -11 -11 -12 -12 -12 -12 -12 -12 -12 -12 -12 -11 -9 -7 -5 -4 -4 -4 -3 -3 -1 0 2 4 6 8 9 10 11 12 13 13 14 14 14 14 15 15 15 15 15
-11 -11 -12 -12 -13 -13 -13 -13 -13 -13 -13 -12 -12 -12 -10 -8 -9 -7 -6 -5 -5 -4 -2 -1 1 2 4 7 8 9 10 11 12 12 13 13 14 14 14 14 15 15 15
-11 -12 -12 -13 -13 -14 -14 -13 -14 -13 -13 -13 -13 -12 -11 -10 -9 -8 -7 -6 -6 -5 -3 -2 -0 1 3 5 7 8 9 10 11 12 12 13 13 13 13 14 14 14 15
-12 -12 -13 -13 -13 -14 -14 -14 -14 -14 -14 -14 -13 -12 -11 -10 -10 -9 -8 -7 -6 -5 -4 -3 -1 1 2 3 5 7 9 10 11 11 12 12 13 13 13 13 14 14 14
-12 -13 -13 -13 -13 -14 -14 -14 -14 -14 -14 -13 -13 -12 -11 -11 -10 -9 -9 -8 -8 -6 -5 -3 -2 -0 1 2 4 5 7 9 10 11 11 12 12 13 13 13 13 14 14
-13 -13 -13 -13 -13 -13 -14 -14 -14 -14 -13 -13 -12 -12 -11 -10 -10 -9 -9 -9 -8 -7 -6 -4 -3 -1 -0 1 3 4 6 8 9 10 11 11 12 12 13 13 13 13 14
-13 -13 -13 -13 -13 -13 -13 -13 -13 -13 -13 -12 -12 -11 -10 -10 -9 -9 -9 -9 -8 -8 -7 -6 -3 -2 -1 -0 1 3 5 7 8 9 10 10 11 12 12 13 13 13 13
-13 -12 -13 -13 -13 -13 -13 -13 -13 -13 -12 -12 -11 -10 -10 -9 -9 -9 -8 -8 -8 -8 -7 -6 -5 -3 -2 -1 1 2 4 6 7 8 9 10 10 11 12 12 13 13 13
-12 -12 -12 -12 -13 -13 -12 -12 -12 -12 -11 -11 -10 -10 -9 -9 -8 -8 -8 -8 -8 -8 -7 -6 -5 -4 -3 -1 0 2 3 5 6 8 8 9 10 11 11 12 12 12 12
-12 -12 -12 -12 -12 -11 -11 -11 -11 -11 -11 -10 -10 -9 -9 -9 -9 -8 -8 -8 -8 -7 -7 -6 -5 -4 -3 -2 -0 1 3 4 6 7 8 8 9 10 11 11 12 12 12
-12 -11 -11 -11 -10 -10 -10 -10 -10 -10 -10 -10 -10 -9 -9 -9 -9 -9 -8 -8 -8 -7 -7 -6 -5 -4 -3 -2 -1 1 2 4 5 7 8 8 9 10 10 11 11 12 12
-12 -11 -11 -10 -10 -10 -10 -10 -10 -10 -10 -10 -10 -10 -10 -9 -9 -9 -9 -9 -8 -8 -7 -6 -5 -4 -3 -2 -1 0 2 3 5 6 7 8 8 9 10 10 11 11 12
-12 -11 -11 -10 -10 -10 -10 -10 -10 -10 -10 -10 -10 -10 -10 -10 -10 -10 -9 -9 -9 -9 -8 -7 -6 -5 -4 -3 -2 -0 2 3 4 6 7 8 8 9 9 10 11 11 12
-12 -12 -11 -11 -10 -10 -10 -11 -10 -10 -10 -10 -10 -10 -10 -10 -10 -10 -10 -10 -10 -9 -9 -8 -7 -5 -4 -3 -2 -1 0 2 4 5 6 7 8 9 9 10 10 11 11
-12 -12 -12 -11 -11 -10 -10 -11 -11 -11 -11 -11 -11 -11 -11 -11 -11 -11 -11 -10 -10 -10 -10 -9 -8 -7 -6 -4 -3 -2 -1 1 3 4 6 7 8 8 9 9 10 11 11
-12 -13 -12 -12 -11 -11 -11 -11 -12 -12 -12 -12 -12 -12 -12 -11 -11 -11 -10 -10 -10 -10 -10 -10 -9 -8 -7 -6 -4 -3 -2 -1 2 3 5 6 7 8 8 9 10 10 11
-13 -13 -13 -12 -12 -11 -11 -11 -12 -12 -12 -12 -13 -13 -13 -12 -11 -11 -11 -11 -11 -10 -10 -10 -10 -9 -8 -6 -5 -4 -2 -1 1 2 3 5 6 7 8 8 9 10 10
-13 -13 -13 -13 -12 -12 -12 -11 -12 -12 -12 -13 -13 -13 -13 -13 -12 -12 -12 -11 -11 -10 -10 -9 -9 -9 -8 -6 -5 -4 -3 -2 -0 1 3 4 5 6 7 8 8 9 10
-12 -13 -13 -13 -13 -12 -12 -12 -12 -12 -13 -13 -14 -14 -13 -13 -13 -13 -13 -13 -12 -11 -10 -9 -8 -8 -7 -6 -5 -4 -3 -2 -1 1 2 3 4 5 6 7 8 8 9

GEFSMA_850_meantemp_042.txt.gz
Temperature
-4 -5 -5 -5 -6 -6 -6 -6 -6 -6 -6 -6 -5 -5 -4 -3 -2 -2 -1 1 2 3 4 4 5 6 7 9 9 10 11 12 13 14 15 15 15 16 16 16 16 16 16
-6 -6 -7 -7 -7 -8 -8 -8 -8 -8 -8 -7 -7 -6 -5 -4 -4 -3 -2 -1 1 2 3 3 4 4 6 7 8 9 11 12 13 14 14 15 15 15 16 16 16 16 16
-6 -7 -8 -8 -9 -9 -9 -9 -9 -9 -9 -9 -8 -8 -7 -6 -5 -4 -3 -3 -1 0 1 2 3 3 4 5 7 8 10 11 12 13 14 14 15 15 15 16 16 16 16
-7 -8 -9 -9 -10 -10 -10 -10 -10 -10 -10 -10 -10 -9 -8 -7 -6 -5 -4 -3 -2 -1 -1 0 1 1 2 4 5 7 8 10 11 12 13 14 15 15 15 15 16 16 16
-8 -9 -10 -10 -11 -11 -11 -11 -11 -11 -11 -11 -10 -10 -9 -8 -7 -5 -4 -4 -3 -3 -2 -2 -1 0 2 3 5 6 8 9 10 11 12 13 14 15 15 15 15 16 16
-9 -10 -11 -11 -11 -11 -11 -11 -11 -11 -11 -11 -11 -11 -10 -9 -7 -6 -5 -4 -4 -4 -3 -3 -3 -1 0 2 4 6 7 8 9 11 12 13 14 14 15 15 15 15 16
-10 -11 -11 -11 -11 -12 -12 -12 -12 -12 -12 -12 -12 -11 -10 -8 -7 -6 -6 -5 -4 -4 -4 -4 -3 -2 -1 0 2 4 6 8 9 10 11 12 13 14 15 15 15 15 15
-10 -11 -11 -11 -12 -12 -12 -12 -12 -12 -12 -12 -12 -12 -11 -9 -6 -7 -6 -5 -5 -5 -5 -4 -4 -3 -2 -1 1 3 5 7 8 9 10 12 13 13 14 15 15 15 15
-10 -11 -11 -11 -12 -12 -12 -12 -12 -13 -13 -13 -13 -12 -12 -10 -11 -9 -7 -6 -6 -6 -5 -5 -4 -3 -2 -1 0 2 4 6 7 9 10 11 12 13 14 14 15 15 15
-10 -11 -11 -11 -12 -12 -12 -12 -13 -13 -13 -13 -13 -13 -12 -12 -12 -10 -8 -7 -7 -6 -6 -5 -4 -4 -3 -2 -0 1 3 4 6 8 9 10 11 13 13 14 14 15 15
-10 -11 -11 -11 -12 -12 -12 -12 -12 -13 -13 -13 -13 -13 -13 -12 -12 -11 -10 -8 -7 -7 -6 -5 -5 -4 -3 -2 -1 0 2 3 5 7 9 10 11 12 13 14 14 14 15
-10 -10 -11 -11 -11 -11 -11 -12 -12 -12 -12 -12 -13 -13 -12 -12 -12 -11 -10 -9 -8 -7 -6 -6 -5 -4 -3 -3 -2 -0 1 3 4 6 8 9 10 11 12 13 14 14 14
-10 -10 -10 -10 -10 -11 -11 -11 -11 -11 -12 -12 -12 -12 -12 -12 -12 -11 -11 -10 -9 -7 -6 -5 -5 -4 -4 -3 -2 -1 1 2 4 5 7 9 10 11 12 13 13 14 14
-11 -10 -10 -10 -10 -10 -10 -11 -11 -11 -11 -11 -11 -11 -11 -11 -11 -10 -10 -10 -9 -7 -6 -5 -5 -4 -4 -4 -3 -1 0 1 3 5 6 8 9 10 11 12 13 14 14
-11 -11 -11 -11 -10 -10 -10 -11 -11 -11 -10 -10 -10 -10 -10 -10 -10 -10 -9 -9 -9 -8 -7 -6 -5 -5 -5 -4 -3 -2 -1 1 3 4 6 7 8 10 11 12 13 13 13
-11 -11 -11 -11 -11 -11 -11 -11 -11 -11 -10 -10 -10 -10 -10 -10 -10 -9 -9 -9 -9 -8 -8 -7 -6 -6 -5 -5 -4 -2 -1 1 3 4 5 7 8 9 10 11 12 13 13
-11 -11 -11 -11 -11 -11 -11 -11 -11 -11 -10 -10 -10 -10 -10 -10 -10 -9 -9 -9 -9 -9 -8 -7 -7 -6 -6 -5 -4 -2 -1 0 2 3 5 6 7 8 10 11 12 12 13
-11 -12 -12 -11 -11 -11 -11 -11 -11 -11 -11 -11 -11 -10 -10 -10 -10 -10 -10 -9 -9 -9 -9 -8 -7 -7 -6 -5 -4 -3 -1 0 1 3 4 6 7 8 9 10 11 12 13
-11 -12 -12 -12 -11 -11 -11 -11 -11 -11 -11 -11 -11 -11 -11 -11 -11 -10 -10 -10 -10 -9 -9 -9 -8 -7 -6 -5 -4 -3 -1 -0 1 3 4 5 7 8 8 9 11 11 12
-11 -12 -12 -12 -12 -11 -11 -11 -11 -12 -12 -12 -12 -12 -12 -11 -11 -11 -10 -10 -10 -10 -9 -9 -9 -8 -7 -6 -5 -3 -2 -0 1 2 4 5 6 7 8 9 10 11 12
-11 -11 -12 -12 -11 -11 -11 -11 -11 -12 -12 -12 -12 -12 -12 -12 -11 -11 -11 -11 -11 -11 -10 -10 -9 -9 -8 -7 -6 -4 -3 -1 1 2 4 5 6 7 8 8 9 10 11
-10 -11 -11 -11 -11 -11 -11 -11 -11 -11 -12 -12 -12 -12 -12 -12 -11 -11 -11 -12 -11 -11 -11 -10 -10 -10 -9 -8 -7 -5 -4 -2 1 2 3 5 6 7 8 8 9 10 11
-10 -10 -11 -11 -11 -11 -11 -11 -11 -11 -12 -12 -12 -12 -12 -12 -12 -11 -12 -12 -12 -11 -11 -11 -11 -11 -10 -9 -8 -6 -4 -3 -1 1 3 4 5 6 8 8 8 9 10
-10 -10 -10 -11 -11 -11 -11 -11 -11 -11 -11 -12 -12 -12 -12 -12 -12 -12 -12 -12 -12 -12 -11 -11 -11 -11 -10 -9 -8 -7 -5 -3 -1 1 2 4 5 6 7 7 8 9 10
-9 -10 -10 -10 -10 -10 -10 -10 -11 -11 -11 -11 -12 -12 -13 -12 -12 -12 -12 -12 -12 -11 -11 -11 -11 -10 -10 -9 -8 -7 -5 -4 -2 0 2 3 5 6 6 7 7 8 9
-9 -9 -10 -10 -10 -10 -10 -10 -10 -10 -11 -11 -12 -12 -12 -12 -12 -13 -13 -13 -12 -12 -11 -10 -10 -10 -10 -9 -8 -7 -5 -4 -3 -0 1 3 4 5 6 6 7 8 9

GEFSMA_850_meantemp_048.txt.gz
Temperature
-2 -3 -3 -4 -5 -6 -6 -7 -7 -7 -7 -7 -8 -8 -7 -7 -7 -7 -7 -7 -6 -5 -4 -2 -1 -0 1 2 3 4 5 7 8 10 11 12 13 14 15 15 15 16 16
-3 -4 -4 -5 -6 -7 -7 -7 -8 -8 -8 -8 -8 -8 -8 -8 -8 -8 -8 -8 -7 -6 -5 -4 -2 -1 -0 1 2 3 4 5 7 8 10 11 12 13 14 15 15 15 16
-4 -5 -5 -6 -7 -7 -8 -8 -8 -9 -9 -9 -9 -9 -9 -9 -9 -9 -9 -9 -8 -7 -6 -5 -3 -2 -1 0 1 2 3 4 5 7 8 10 11 12 13 14 15 15 15
-4 -5 -6 -7 -7 -8 -8 -9 -9 -9 -9 -10 -10 -10 -10 -10 -10 -10 -10 -9 -9 -8 -7 -5 -4 -3 -1 -0 1 2 2 3 4 6 7 9 11 12 13 14 14 15 15
-5 -6 -6 -7 -8 -8 -8 -9 -9 -10 -10 -10 -10 -10 -10 -10 -11 -10 -10 -10 -9 -8 -7 -6 -4 -3 -2 -1 -0 1 1 2 3 4 6 8 10 11 12 13 14 15 15
-5 -6 -7 -8 -8 -9 -9 -9 -10 -10 -10 -10 -11 -11 -11 -11 -11 -11 -11 -10 -9 -8 -7 -6 -5 -4 -3 -2 -1 -0 0 1 2 3 5 7 9 10 11 12 13 14 15
-6 -7 -8 -8 -8 -9 -9 -9 -10 -10 -10 -10 -11 -11 -11 -11 -11 -11 -11 -10 -10 -9 -7 -6 -5 -4 -4 -3 -2 -1 -0 0 1 2 4 6 8 9 11 12 13 14 14
-6 -7 -8 -8 -9 -9 -9 -9 -10 -10 -10 -10 -11 -11 -11 -11 -10 -11 -11 -11 -10 -10 -8 -7 -6 -5 -5 -4 -3 -3 -2 -1 0 2 3 4 6 8 10 11 12 13 14
-7 -8 -8 -9 -9 -10 -10 -10 -10 -10 -10 -10 -10 -11 -11 -11 -11 -11 -11 -11 -10 -10 -9 -8 -7 -6 -5 -4 -4 -3 -3 -1 -0 1 2 3 5 7 9 10 12 13 14
-7 -8 -9 -9 -10 -10 -10 -10 -10 -10 -10 -10 -10 -10 -11 -11 -11 -11 -10 -10 -10 -10 -9 -8 -7 -7 -6 -5 -4 -4 -3 -2 -1 0 1 3 4 6 8 10 11 12 13
-7 -8 -9 -9 -10 -10 -10 -10 -10 -10 -10 -10 -10 -11 -11 -11 -11 -11 -11 -10 -10 -9 -9 -8 -7 -6 -6 -5 -4 -4 -3 -2 -1 -0 1 2 3 5 7 9 10 11 13
-7 -8 -9 -10 -10 -10 -10 -10 -10 -10 -10 -10 -10 -11 -11 -11 -11 -11 -11 -11 -10 -9 -9 -8 -7 -7 -6 -5 -4 -4 -3 -2 -2 -1 -0 1 3 4 6 8 9 11 12
-7 -8 -9 -10 -10 -11 -11 -11 -11 -10 -10 -10 -10 -10 -11 -11 -11 -11 -10 -10 -10 -10 -9 -8 -8 -7 -6 -5 -5 -4 -4 -3 -2 -2 -1 0 2 4 6 7 9 10 11
-8 -9 -9 -10 -10 -11 -11 -11 -11 -10 -10 -10 -10 -11 -11 -11 -11 -11 -11 -10 -10 -10 -9 -9 -8 -7 -7 -6 -6 -5 -4 -4 -3 -2 -1 0 1 3 5 7 9 10 11
-8 -9 -9 -10 -11 -11 -11 -11 -11 -11 -11 -10 -11 -11 -11 -11 -11 -11 -11 -10 -10 -10 -9 -9 -9 -8 -7 -7 -6 -5 -5 -4 -3 -2 -1 -0 1 3 4 6 8 10 11
-8 -8 -9 -10 -11 -11 -11 -11 -11 -11 -11 -11 -11 -11 -11 -12 -12 -11 -11 -11 -10 -10 -10 -9 -9 -8 -8 -8 -7 -6 -5 -4 -3 -3 -2 -0 1 2 4 6 8 9 10
-7 -8 -9 -10 -10 -11 -11 -11 -11 -11 -11 -11 -11 -11 -12 -12 -12 -11 -11 -11 -10 -10 -10 -10 -9 -9 -8 -8 -7 -6 -5 -4 -3 -2 -1 -0 1 2 4 5 7 9 10
-7 -8 -9 -10 -10 -11 -11 -11 -11 -11 -11 -11 -11 -11 -12 -12 -12 -11 -11 -11 -11 -11 -11 -11 -10 -9 -9 -8 -8 -7 -6 -5 -4 -2 -1 -0 1 2 3 5 6 8 10
-7 -8 -9 -9 -10 -10 -11 -11 -11 -11 -11 -11 -11 -11 -11 -12 -12 -11 -11 -11 -11 -11 -11 -11 -11 -10 -9 -9 -8 -7 -6 -5 -4 -2 -1 -0 1 2 3 5 6 8 9
-7 -8 -8 -9 -9 -10 -10 -10 -10 -10 -10 -10 -11 -11 -11 -12 -12 -11 -11 -11 -11 -11 -11 -11 -11 -11 -10 -9 -9 -8 -6 -4 -4 -2 -1 -0 1 2 4 5 6 7 9
-7 -7 -8 -9 -9 -9 -10 -10 -10 -9 -10 -10 -10 -11 -11 -11 -11 -11 -11 -11 -11 -11 -11 -11 -11 -11 -11 -10 -10 -9 -8 -6 -3 -3 -1 -0 1 2 4 5 6 7 8
-6 -7 -8 -9 -9 -9 -10 -9 -9 -9 -9 -10 -10 -10 -11 -11 -12 -11 -11 -11 -11 -12 -12 -11 -12 -12 -11 -11 -11 -10 -10 -8 -5 -3 -2 -0 1 2 3 5 6 7 8
-6 -7 -8 -9 -9 -9 -10 -9 -9 -9 -9 -9 -10 -10 -11 -11 -11 -11 -11 -12 -12 -12 -12 -12 -12 -12 -12 -11 -11 -10 -10 -9 -7 -3 -3 -0 1 2 3 5 6 7 8
-6 -7 -7 -8 -9 -9 -9 -9 -8 -8 -9 -9 -10 -10 -11 -11 -11 -11 -11 -12 -12 -12 -12 -12 -12 -12 -12 -11 -11 -11 -10 -9 -5 -4 -3 -2 1 2 4 5 6 7 8
-5 -6 -7 -8 -9 -9 -9 -9 -8 -8 -9 -9 -10 -11 -11 -11 -11 -11 -11 -12 -12 -12 -12 -12 -12 -12 -11 -11 -11 -11 -10 -9 -7 -4 -3 -2 0 2 4 5 6 7 8
-5 -6 -6 -7 -9 -9 -9 -9 -8 -9 -9 -10 -10 -11 -11 -11 -11 -11 -12 -12 -12 -12 -12 -12 -11 -11 -11 -11 -11 -11 -11 -10 -9 -5 -3 -2 0 2 4 5 6 6 7

GEFSMA_850_meantemp_054.txt.gz
Temperature
0 -0 -1 -2 -3 -4 -4 -5 -5 -6 -6 -6 -6 -6 -6 -6 -6 -6 -7 -7 -7 -7 -7 -7 -7 -6 -6 -4 -3 -2 -1 0 2 3 4 5 8 10 11 12 13 14 14
-0 -1 -2 -2 -3 -4 -5 -5 -6 -6 -7 -7 -7 -7 -7 -7 -7 -7 -7 -7 -7 -8 -8 -8 -8 -7 -7 -6 -4 -3 -2 -0 1 2 3 4 6 8 10 11 13 13 14
-1 -1 -2 -3 -3 -4 -5 -6 -6 -7 -7 -7 -7 -7 -7 -7 -7 -7 -8 -8 -8 -8 -9 -9 -9 -8 -7 -6 -5 -4 -3 -1 0 1 3 4 5 6 8 10 12 13 14
-1 -2 -2 -3 -4 -5 -5 -6 -7 -7 -7 -8 -8 -8 -8 -8 -7 -8 -8 -8 -9 -9 -9 -9 -9 -9 -8 -7 -6 -5 -3 -2 -0 1 2 3 4 5 7 9 11 12 13
-1 -2 -3 -3 -4 -5 -6 -7 -7 -8 -8 -8 -9 -9 -8 -8 -8 -8 -8 -9 -9 -9 -9 -10 -10 -9 -9 -8 -7 -5 -4 -2 -1 1 2 3 4 5 6 8 9 11 12
-1 -2 -3 -3 -4 -5 -6 -7 -8 -8 -9 -9 -9 -9 -9 -8 -8 -9 -9 -9 -9 -9 -10 -10 -10 -10 -9 -8 -7 -6 -4 -2 -1 1 2 3 3 4 5 7 8 10 12
-2 -2 -3 -4 -5 -5 -6 -7 -8 -9 -9 -9 -10 -10 -10 -9 -9 -9 -9 -9 -9 -9 -10 -10 -10 -10 -9 -9 -8 -6 -5 -3 -1 0 1 2 3 4 5 6 7 9 11
-2 -2 -3 -4 -5 -6 -7 -8 -9 -9 -10 -10 -11 -11 -11 -11 -10 -10 -9 -10 -10 -10 -10 -10 -10 -10 -9 -9 -8 -7 -6 -4 -2 -1 1 2 2 3 4 5 6 8 10
-2 -3 -3 -4 -5 -6 -7 -8 -9 -10 -10 -10 -11 -11 -11 -11 -11 -11 -10 -10 -10 -10 -10 -10 -10 -10 -9 -9 -8 -7 -6 -5 -4 -2 -0 1 2 3 4 4 6 7 9
-2 -3 -4 -4 -5 -7 -8 -8 -9 -10 -11 -11 -11 -11 -11 -12 -12 -12 -11 -11 -11 -11 -10 -10 -10 -10 -9 -9 -8 -7 -6 -5 -4 -3 -2 -0 1 2 3 4 5 6 8
-2 -3 -4 -5 -6 -7 -8 -9 -9 -10 -11 -11 -11 -11 -11 -11 -12 -12 -12 -11 -11 -11 -11 -10 -10 -10 -9 -9 -8 -7 -6 -5 -5 -3 -2 -1 0 1 3 3 4 6 7
-2 -3 -4 -5 -6 -7 -8 -9 -9 -10 -11 -11 -11 -11 -11 -12 -12 -12 -13 -12 -12 -12 -11 -11 -10 -10 -9 -9 -8 -8 -7 -6 -5 -4 -3 -2 -1 0 2 3 4 5 6
-2 -3 -4 -5 -6 -7 -8 -9 -9 -10 -10 -11 -11 -11 -11 -11 -11 -12 -12 -13 -13 -12 -11 -11 -10 -10 -10 -9 -8 -8 -7 -6 -5 -4 -3 -3 -2 -1 1 2 3 5 6
-2 -3 -4 -5 -6 -7 -8 -9 -9 -10 -10 -10 -10 -11 -11 -11 -11 -12 -12 -12 -13 -12 -12 -11 -10 -10 -10 -9 -9 -8 -8 -6 -6 -5 -4 -3 -2 -1 -0 1 2 4 5
-2 -3 -4 -5 -6 -7 -8 -9 -9 -9 -9 -10 -10 -10 -10 -10 -11 -11 -11 -12 -13 -13 -12 -11 -11 -10 -10 -10 -9 -9 -8 -7 -6 -5 -5 -4 -3 -2 -1 -0 1 3 4
-3 -3 -4 -5 -6 -7 -8 -8 -9 -9 -9 -9 -9 -10 -10 -10 -11 -11 -11 -12 -12 -12 -12 -12 -11 -10 -10 -10 -10 -9 -8 -7 -6 -5 -5 -4 -3 -3 -2 -1 0 2 3
-3 -3 -4 -5 -6 -7 -7 -8 -9 -9 -9 -9 -9 -9 -10 -10 -10 -11 -11 -11 -12 -12 -12 -12 -11 -11 -10 -10 -10 -9 -9 -8 -7 -6 -5 -4 -4 -3 -2 -2 -1 1 2
-3 -3 -4 -5 -6 -7 -7 -8 -8 -9 -9 -9 -9 -9 -9 -10 -10 -11 -11 -11 -11 -11 -12 -12 -11 -11 -11 -11 -10 -10 -9 -8 -7 -6 -5 -4 -4 -3 -3 -2 -1 1 2
-3 -3 -4 -5 -5 -6 -7 -8 -8 -8 -8 -9 -9 -9 -9 -10 -10 -11 -11 -11 -11 -11 -11 -12 -12 -11 -11 -11 -11 -10 -9 -8 -7 -6 -5 -5 -4 -3 -3 -2 -1 0 2
-3 -3 -4 -5 -5 -6 -7 -7 -8 -8 -8 -8 -9 -9 -10 -10 -10 -10 -11 -11 -11 -11 -11 -11 -12 -12 -12 -11 -11 -11 -10 -9 -7 -6 -5 -5 -4 -3 -2 -1 -0 1 2
-3 -3 -4 -4 -5 -6 -6 -7 -8 -8 -8 -8 -9 -9 -10 -10 -10 -10 -10 -10 -10 -11 -11 -11 -12 -12 -12 -12 -12 -12 -11 -10 -8 -7 -6 -5 -4 -3 -2 -1 -0 1 2
-3 -3 -4 -4 -5 -5 -6 -7 -9 -8 -8 -9 -9 -9 -10 -10 -10 -10 -10 -10 -10 -10 -11 -12 -12 -12 -12 -12 -12 -12 -12 -11 -10 -7 -7 -5 -4 -3 -2 -1 0 1 2
-3 -3 -4 -4 -5 -5 -6 -8 -8 -8 -8 -9 -9 -10 -10 -10 -10 -10 -10 -10 -11 -11 -11 -12 -12 -12 -12 -12 -12 -12 -12 -11 -11 -9 -9 -5 -3 -3 -2 -1 0 1 2
-3 -3 -4 -4 -4 -5 -6 -7 -8 -9 -9 -9 -9 -10 -10 -10 -10 -10 -10 -10 -11 -11 -12 -12 -12 -12 -12 -12 -12 -12 -12 -11 -10 -9 -9 -7 -3 -2 -1 -1 0 1 2
-2 -3 -3 -4 -4 -5 -6 -7 -9 -9 -9 -9 -9 -10 -10 -10 -10 -10 -10 -11 -11 -11 -12 -12 -12 -12 -12 -12 -12 -12 -12 -12 -11 -9 -8 -8 -5 -3 -1 -0 1 2 3
-2 -3 -3 -4 -5 -5 -6 -7 -9 -9 -9 -9 -9 -10 -10 -10 -10 -10 -10 -11 -11 -11 -12 -12 -12 -12 -12 -12 -12 -12 -12 -12 -12 -11 -8 -8 -6 -5 -2 0 1 2 3

GEFSMA_850_meantemp_060.txt.gz
Temperature
3 3 2 2 1 1 0 -0 -1 -2 -3 -3 -4 -5 -5 -5 -6 -6 -6 -6 -7 -7 -7 -7 -6 -6 -5 -5 -5 -5 -4 -4 -3 -3 -2 -1 0 2 3 4 6 8 10
3 2 2 1 1 0 -0 -1 -2 -3 -4 -4 -5 -5 -5 -6 -6 -6 -7 -7 -7 -7 -7 -8 -7 -7 -6 -6 -5 -5 -5 -5 -4 -4 -3 -2 -1 1 2 3 5 6 8
3 2 1 1 0 -0 -1 -2 -3 -3 -4 -5 -5 -5 -6 -6 -6 -7 -7 -7 -7 -7 -8 -8 -8 -7 -7 -7 -6 -6 -6 -5 -5 -4 -4 -3 -2 -0 1 2 4 5 7
2 2 1 1 -0 -1 -2 -2 -3 -3 -4 -5 -5 -5 -5 -6 -6 -7 -7 -7 -8 -8 -8 -8 -9 -8 -8 -8 -7 -7 -6 -6 -5 -5 -4 -3 -2 -1 0 1 3 4 6
2 2 1 0 -0 -1 -2 -3 -3 -4 -4 -5 -6 -5 -5 -6 -6 -6 -7 -8 -8 -8 -8 -8 -9 -9 -9 -8 -8 -7 -7 -6 -6 -5 -5 -4 -3 -2 -1 1 2 3 5
2 1 1 0 -0 -1 -2 -3 -3 -4 -5 -6 -6 -6 -5 -5 -6 -6 -7 -8 -8 -8 -9 -9 -9 -9 -9 -9 -9 -8 -8 -7 -6 -6 -5 -4 -3 -2 -1 0 2 3 4
2 1 1 0 -1 -1 -2 -3 -3 -4 -4 -6 -6 -6 -5 -5 -6 -7 -7 -8 -8 -8 -9 -9 -9 -9 -9 -9 -9 -9 -8 -8 -7 -6 -5 -4 -3 -2 -1 0 1 3 4
2 1 1 0 -1 -1 -2 -3 -4 -4 -4 -6 -7 -9 -9 -8 -8 -8 -8 -8 -8 -9 -9 -9 -9 -10 -10 -10 -9 -9 -9 -8 -7 -6 -5 -5 -3 -2 -1 0 1 2 4
2 1 1 -0 -1 -1 -2 -3 -4 -5 -5 -6 -7 -9 -10 -10 -10 -9 -8 -9 -9 -9 -9 -9 -10 -10 -10 -10 -10 -9 -9 -9 -7 -6 -6 -5 -4 -2 -1 0 1 2 3
2 1 1 -0 -1 -1 -2 -3 -4 -5 -6 -6 -7 -8 -9 -10 -11 -11 -10 -9 -10 -10 -10 -10 -10 -10 -10 -10 -10 -10 -9 -9 -8 -7 -6 -5 -4 -3 -1 0 1 2 3
2 1 0 -0 -1 -1 -2 -3 -4 -5 -6 -7 -7 -8 -9 -10 -10 -12 -12 -10 -10 -10 -10 -10 -10 -10 -10 -10 -10 -10 -10 -9 -8 -7 -6 -5 -4 -3 -2 -0 1 2 3
2 1 0 -0 -1 -1 -2 -3 -4 -5 -6 -7 -7 -8 -9 -10 -10 -11 -12 -11 -11 -10 -10 -10 -10 -10 -10 -10 -10 -10 -10 -10 -9 -8 -7 -6 -5 -4 -3 -1 0 2 3
2 1 0 -0 -1 -2 -2 -3 -4 -5 -6 -6 -7 -8 -9 -9 -9 -10 -11 -12 -12 -11 -11 -11 -10 -10 -10 -11 -11 -11 -10 -10 -9 -8 -8 -7 -6 -5 -4 -2 -1 1 2
2 1 0 -0 -1 -2 -2 -3 -4 -4 -5 -6 -7 -8 -8 -9 -9 -10 -10 -11 -12 -11 -11 -11 -10 -10 -10 -11 -11 -11 -11 -10 -10 -9 -8 -7 -7 -6 -5 -4 -2 -1 1
2 1 0 -0 -1 -2 -2 -3 -4 -4 -5 -6 -7 -8 -8 -8 -9 -9 -10 -10 -11 -12 -11 -11 -11 -10 -10 -11 -11 -11 -11 -10 -10 -9 -9 -8 -7 -6 -5 -4 -3 -2 -0
2 1 0 -0 -1 -2 -2 -3 -3 -4 -5 -6 -7 -8 -8 -8 -9 -9 -9 -10 -11 -12 -12 -11 -11 -11 -11 -11 -11 -11 -11 -11 -10 -10 -9 -8 -7 -6 -5 -5 -4 -3 -1
2 1 0 -0 -1 -2 -2 -3 -3 -4 -5 -6 -7 -8 -8 -8 -9 -9 -9 -10 -10 -11 -12 -11 -11 -11 -11 -10 -10 -10 -11 -10 -10 -10 -9 -8 -7 -7 -6 -5 -4 -3 -2
2 1 0 -1 -1 -1 -2 -3 -3 -4 -5 -6 -7 -8 -8 -8 -9 -9 -9 -10 -10 -11 -11 -11 -11 -11 -11 -11 -11 -11 -11 -11 -11 -10 -9 -8 -8 -7 -6 -5 -4 -3 -3
1 0 -0 -1 -1 -1 -2 -3 -3 -4 -5 -6 -7 -8 -8 -9 -9 -9 -10 -10 -10 -10 -10 -11 -11 -11 -11 -11 -11 -11 -11 -11 -11 -10 -10 -9 -8 -7 -6 -5 -4 -3 -3
1 0 -0 -1 -1 -2 -2 -3 -3 -4 -5 -6 -7 -8 -8 -9 -9 -9 -10 -10 -10 -10 -10 -10 -11 -11 -11 -11 -11 -12 -12 -12 -11 -11 -10 -9 -8 -7 -6 -5 -4 -3 -2
1 0 -0 -1 -1 -2 -2 -3 -4 -4 -5 -6 -7 -8 -8 -9 -9 -9 -9 -9 -9 -10 -10 -10 -10 -11 -11 -11 -11 -12 -12 -12 -12 -11 -10 -9 -9 -7 -6 -5 -4 -3 -2
1 -0 -1 -1 -2 -2 -2 -3 -4 -5 -5 -6 -7 -8 -8 -9 -9 -9 -10 -10 -10 -9 -9 -10 -10 -11 -11 -11 -12 -12 -12 -12 -12 -11 -11 -10 -9 -8 -6 -5 -4 -3 -2
0 -0 -1 -1 -2 -2 -3 -3 -4 -5 -6 -7 -7 -8 -8 -9 -9 -9 -9 -9 -9 -10 -10 -10 -11 -11 -11 -11 -12 -12 -12 -12 -12 -12 -12 -10 -9 -8 -6 -5 -4 -3 -2
0 -0 -1 -1 -2 -2 -3 -3 -4 -5 -6 -6 -7 -8 -8 -9 -9 -9 -9 -9 -9 -10 -10 -11 -11 -11 -11 -11 -11 -11 -12 -12 -12 -12 -12 -11 -9 -8 -6 -5 -4 -3 -2
0 -0 -1 -1 -2 -2 -3 -4 -4 -5 -5 -6 -7 -8 -8 -9 -9 -9 -9 -9 -9 -10 -10 -11 -11 -11 -11 -11 -12 -12 -12 -13 -13 -12 -12 -12 -10 -8 -6 -5 -4 -3 -2
-0 -1 -1 -1 -2 -2 -3 -4 -4 -5 -5 -6 -6 -7 -8 -9 -9 -9 -9 -9 -10 -10 -10 -11 -11 -11 -11 -12 -12 -13 -13 -13 -13 -13 -12 -12 -11 -10 -7 -5 -4 -3 -2

GEFSMA_850_meantemp_066.txt.gz
Temperature
6 6 5 5 4 4 4 3 3 3 3 2 2 2 1 0 -0 -1 -1 -1 -2 -2 -3 -4 -5 -4 -4 -4 -3 -3 -3 -3 -3 -2 -2 -2 -1 -1 -1 -0 0 1 2
6 5 5 5 4 4 3 3 3 2 2 2 1 1 1 -0 -1 -1 -2 -2 -3 -3 -3 -4 -5 -5 -5 -5 -4 -4 -4 -4 -3 -3 -3 -3 -2 -2 -2 -1 -1 -0 1
6 5 5 5 4 4 3 3 2 2 2 1 1 1 0 -0 -1 -2 -2 -3 -3 -4 -4 -4 -5 -6 -6 -5 -5 -5 -5 -5 -4 -4 -4 -3 -3 -3 -2 -2 -1 -1 -0
5 5 5 4 4 3 3 2 2 2 1 1 0 0 -0 -0 -1 -2 -2 -3 -4 -4 -5 -5 -5 -6 -6 -6 -6 -6 -6 -5 -5 -5 -4 -4 -4 -3 -3 -2 -2 -1 -1
5 5 5 4 4 3 3 2 2 1 1 0 -0 -0 -1 -1 -1 -1 -2 -3 -4 -4 -5 -5 -6 -6 -6 -7 -7 -7 -6 -6 -6 -6 -5 -5 -4 -4 -3 -3 -2 -2 -1
5 5 5 4 3 3 3 2 1 1 0 -0 -1 -1 -1 -1 -1 -1 -2 -3 -3 -4 -5 -5 -6 -6 -7 -7 -7 -7 -7 -7 -6 -6 -6 -5 -5 -4 -4 -3 -3 -2 -2
6 5 5 4 4 3 3 2 1 1 -0 -1 -2 -3 -2 -2 -2 -2 -2 -3 -3 -4 -5 -5 -6 -6 -7 -7 -7 -7 -8 -7 -7 -7 -6 -6 -5 -5 -4 -4 -3 -3 -2
6 5 5 4 4 3 2 2 1 1 -0 -2 -3 -5 -4 -3 -4 -3 -3 -3 -4 -4 -5 -6 -6 -6 -7 -7 -8 -8 -8 -8 -8 -7 -7 -6 -6 -5 -5 -4 -4 -3 -2
6 5 5 4 4 3 2 2 1 0 -0 -2 -3 -4 -5 -4 -4 -5 -5 -4 -5 -5 -6 -6 -7 -7 -7 -8 -8 -8 -8 -8 -8 -8 -7 -7 -6 -5 -5 -4 -4 -3 -3
7 6 5 5 4 3 3 2 1 1 -0 -2 -3 -3 -4 -5 -7 -6 -5 -5 -6 -6 -6 -7 -7 -7 -8 -8 -8 -8 -8 -9 -8 -8 -7 -7 -6 -6 -5 -5 -4 -4 -3
8 7 6 5 4 3 3 2 1 1 -0 -1 -2 -3 -5 -6 -7 -8 -7 -6 -6 -6 -6 -7 -7 -7 -8 -8 -8 -8 -9 -9 -9 -8 -8 -7 -7 -6 -6 -5 -5 -4 -4
9 8 7 5 4 4 3 2 1 1 -0 -1 -2 -3 -4 -6 -6 -7 -7 -7 -6 -6 -6 -7 -7 -7 -7 -8 -8 -8 -9 -9 -9 -9 -8 -8 -8 -7 -7 -6 -6 -5 -4
10 9 7 6 5 4 3 2 1 1 -0 -1 -1 -2 -3 -4 -5 -7 -8 -7 -7 -7 -7 -7 -7 -7 -7 -8 -8 -8 -9 -9 -9 -9 -9 -8 -8 -8 -7 -7 -6 -6 -5
9 9 7 6 5 4 3 2 1 1 -0 -1 -1 -2 -3 -4 -5 -6 -7 -8 -8 -8 -7 -6 -6 -7 -7 -8 -8 -9 -9 -9 -9 -9 -9 -9 -9 -8 -8 -7 -7 -6 -6
8 7 6 5 4 3 2 2 1 0 -0 -1 -1 -2 -3 -3 -5 -6 -7 -8 -9 -9 -8 -7 -7 -7 -7 -8 -8 -9 -9 -9 -9 -9 -9 -9 -9 -8 -8 -8 -7 -7 -6
8 7 5 4 3 2 2 1 1 -0 -1 -1 -1 -2 -3 -3 -4 -5 -7 -8 -9 -10 -9 -8 -8 -8 -8 -8 -8 -8 -9 -9 -9 -9 -9 -9 -9 -9 -8 -8 -8 -7 -6
8 7 5 4 2 1 1 1 0 -0 -1 -1 -2 -2 -3 -3 -5 -5 -7 -8 -9 -9 -10 -9 -8 -8 -8 -8 -8 -8 -9 -9 -9 -9 -9 -9 -9 -9 -9 -8 -8 -7 -7
8 6 5 3 2 1 0 0 -0 -1 -1 -1 -2 -2 -3 -4 -4 -5 -7 -8 -8 -9 -9 -9 -9 -8 -8 -8 -8 -8 -9 -9 -9 -9 -9 -9 -9 -9 -9 -8 -8 -7 -7
7 6 4 3 2 1 0 -0 -1 -1 -1 -2 -2 -2 -3 -4 -4 -5 -6 -7 -8 -9 -9 -9 -9 -9 -8 -8 -8 -8 -9 -9 -9 -9 -9 -10 -10 -9 -9 -9 -8 -8 -7
7 6 4 3 1 -0 -1 -1 -1 -2 -2 -2 -2 -3 -3 -4 -4 -5 -6 -7 -8 -9 -9 -9 -9 -8 -8 -8 -8 -8 -9 -9 -9 -9 -9 -10 -10 -10 -9 -9 -8 -8 -7
6 4 3 1 0 -1 -2 -2 -2 -2 -2 -3 -3 -3 -3 -4 -4 -5 -6 -7 -7 -8 -8 -8 -8 -8 -8 -8 -8 -9 -9 -9 -9 -9 -10 -10 -10 -10 -10 -9 -9 -8 -7
5 4 2 0 -1 -2 -2 -3 -3 -3 -3 -3 -3 -3 -4 -4 -4 -5 -6 -7 -7 -8 -8 -8 -8 -8 -8 -8 -9 -9 -9 -10 -10 -10 -10 -10 -10 -10 -9 -9 -9 -8 -7
4 3 2 -0 -1 -2 -3 -3 -4 -3 -3 -3 -3 -3 -4 -4 -5 -5 -6 -7 -8 -8 -8 -8 -9 -9 -9 -9 -9 -10 -10 -10 -10 -10 -10 -10 -10 -10 -10 -9 -9 -8 -7
4 2 1 -0 -2 -2 -3 -4 -5 -4 -4 -4 -3 -4 -4 -4 -5 -6 -6 -7 -7 -8 -8 -9 -9 -9 -9 -10 -10 -10 -10 -11 -11 -10 -11 -11 -10 -10 -10 -9 -9 -8 -7
3 2 0 -1 -2 -3 -3 -4 -5 -5 -5 -4 -4 -4 -4 -5 -5 -6 -7 -8 -8 -8 -8 -9 -9 -9 -9 -10 -10 -11 -11 -11 -11 -11 -11 -11 -11 -11 -10 -9 -8 -8 -7
2 1 -1 -2 -3 -3 -4 -4 -5 -5 -5 -5 -5 -4 -4 -5 -5 -6 -7 -8 -8 -8 -8 -9 -9 -9 -10 -10 -10 -11 -12 -12 -12 -12 -11 -11 -11 -11 -10 -9 -8 -8 -7

GEFSMA_850_meantemp_072.txt.gz
Temperature
9 9 8 8 8 8 8 7 7 7 6 6 6 5 5 5 5 5 5 5 5 4 4 4 3 3 2 1 1 0 0 -0 -0 -0 -0 -0 -0 -0 -0 0 1 1 2
9 8 8 8 8 7 7 7 7 6 6 6 6 5 5 5 5 5 4 4 4 4 3 3 3 2 1 1 0 -0 -0 -1 -1 -1 -1 -1 -1 -1 -1 -1 -0 -0 1
9 8 8 8 8 7 7 7 6 6 6 6 5 5 5 5 4 4 4 4 4 3 3 3 2 2 1 0 -0 -1 -1 -1 -1 -1 -1 -1 -1 -1 -1 -1 -1 -1 -1
9 8 8 8 7 7 7 6 6 6 6 5 5 5 5 4 4 4 4 3 3 3 3 2 1 1 -0 -1 -1 -1 -1 -2 -2 -2 -2 -2 -2 -2 -2 -2 -2 -1 -1
9 8 8 8 7 7 7 6 6 6 5 5 5 5 4 4 4 4 3 3 3 2 2 2 1 1 -0 -1 -1 -2 -2 -2 -2 -2 -2 -2 -2 -2 -2 -2 -2 -2 -2
9 8 8 8 7 7 7 6 6 6 5 5 4 4 4 4 4 3 3 3 3 2 2 1 1 1 0 -1 -2 -2 -2 -3 -3 -3 -3 -3 -3 -3 -3 -2 -2 -2 -2
9 9 8 8 8 7 7 7 6 5 5 4 3 3 3 3 3 3 3 3 3 2 2 1 1 0 -0 -1 -1 -2 -3 -3 -3 -3 -3 -3 -3 -3 -3 -3 -3 -2 -2
9 9 9 8 8 7 7 6 6 6 5 4 4 3 2 2 3 3 3 2 2 2 1 1 0 -0 -1 -1 -2 -2 -3 -4 -4 -4 -4 -4 -4 -3 -3 -3 -3 -3 -2
9 9 9 9 8 8 7 7 6 6 5 4 4 3 2 2 2 1 1 1 1 1 1 0 -0 -1 -2 -2 -3 -3 -3 -4 -4 -4 -4 -4 -4 -4 -4 -3 -3 -3 -3
9 9 8 8 8 8 7 7 6 6 5 4 3 3 2 2 1 1 -0 -0 -0 -0 -0 -0 -1 -1 -2 -3 -3 -3 -4 -5 -5 -5 -5 -5 -4 -4 -4 -4 -3 -3 -3
8 8 8 7 7 7 7 6 6 5 5 4 4 3 2 1 0 -0 -1 -0 -1 -1 -1 -1 -1 -2 -2 -3 -3 -4 -4 -5 -5 -5 -5 -5 -5 -5 -4 -4 -4 -4 -4
7 7 7 7 7 6 6 5 5 4 4 3 3 3 2 1 1 1 0 0 -0 -0 -1 -1 -2 -2 -2 -3 -3 -4 -5 -5 -5 -5 -5 -5 -5 -5 -5 -5 -5 -5 -4
7 7 6 6 6 6 5 4 3 3 2 2 2 2 2 2 2 1 0 -0 -1 -2 -2 -2 -1 -2 -2 -3 -4 -4 -5 -5 -5 -5 -5 -6 -6 -6 -6 -6 -5 -5 -5
6 6 6 6 5 5 4 3 2 2 1 1 1 1 1 1 1 0 0 -1 -2 -3 -4 -2 -1 -2 -2 -3 -4 -5 -5 -5 -5 -6 -6 -6 -6 -6 -6 -6 -6 -6 -5
5 5 5 5 5 4 4 3 2 2 1 0 -0 -0 -0 -0 -0 -0 -1 -1 -2 -4 -4 -3 -2 -2 -3 -4 -4 -5 -5 -6 -6 -6 -6 -6 -6 -6 -6 -6 -6 -6 -6
6 5 5 4 4 4 3 2 2 1 -0 -1 -1 -2 -2 -1 -1 -1 -1 -2 -2 -3 -4 -3 -2 -2 -3 -4 -4 -5 -6 -6 -6 -6 -6 -6 -6 -6 -6 -6 -6 -6 -6
6 6 5 4 4 3 3 2 2 1 -1 -1 -2 -2 -2 -2 -3 -2 -2 -2 -3 -3 -4 -4 -3 -3 -3 -4 -4 -5 -5 -6 -6 -6 -7 -7 -7 -7 -7 -7 -7 -7 -6
7 6 5 5 4 3 3 2 1 1 -0 -1 -2 -3 -3 -3 -3 -3 -3 -3 -3 -3 -4 -5 -4 -4 -4 -4 -5 -5 -6 -6 -7 -7 -7 -7 -7 -7 -7 -7 -7 -7 -7
7 6 6 5 5 4 3 2 1 1 -0 -1 -2 -3 -3 -4 -4 -4 -4 -4 -3 -4 -4 -5 -5 -5 -4 -5 -6 -6 -6 -7 -7 -7 -7 -7 -7 -7 -7 -7 -7 -7 -7
6 6 6 5 5 4 3 2 1 0 -1 -2 -3 -3 -4 -4 -4 -4 -4 -4 -4 -4 -5 -6 -6 -6 -6 -5 -7 -7 -7 -7 -7 -7 -7 -8 -8 -8 -8 -8 -8 -8 -8
6 5 5 5 4 3 3 2 1 -0 -2 -2 -3 -4 -5 -5 -5 -5 -5 -5 -4 -5 -5 -6 -6 -7 -6 -6 -7 -7 -7 -7 -7 -7 -8 -8 -8 -8 -8 -9 -9 -9 -9
5 4 4 4 4 3 3 1 -0 -1 -2 -3 -4 -4 -5 -6 -6 -6 -6 -5 -5 -5 -5 -6 -6 -7 -6 -6 -7 -7 -8 -8 -8 -7 -8 -8 -9 -9 -9 -9 -9 -9 -9
4 4 4 3 3 3 2 0 -1 -3 -3 -3 -4 -5 -6 -6 -7 -6 -6 -6 -6 -5 -5 -6 -6 -6 -6 -6 -7 -7 -8 -8 -8 -8 -9 -9 -9 -9 -9 -9 -9 -9 -9
3 3 3 2 2 2 1 -0 -2 -3 -4 -4 -5 -5 -6 -7 -7 -6 -6 -6 -5 -5 -5 -6 -6 -6 -6 -7 -7 -7 -8 -8 -8 -8 -9 -10 -9 -10 -10 -10 -10 -10 -9
2 1 1 1 1 1 0 -1 -2 -4 -4 -4 -5 -6 -6 -7 -7 -7 -7 -6 -6 -5 -5 -6 -6 -6 -7 -7 -7 -7 -8 -8 -9 -9 -9 -10 -10 -10 -10 -10 -10 -10 -10
0 0 0 0 -0 -0 -1 -2 -3 -4 -4 -5 -5 -6 -6 -7 -7 -7 -7 -6 -6 -5 -5 -6 -6 -7 -7 -7 -8 -8 -8 -9 -9 -10 -10 -10 -11 -11 -11 -11 -10 -10 -10

GEFSMA_850_meantemp_078.txt.gz
Temperature
11 11 10 10 10 10 9 9 9 9 9 9 8 8 8 8 8 8 7 7 7 7 7 7 6 6 5 5 5 4 4 4 3 3 3 2 2 3 3 2 3 3 3
11 10 10 10 10 9 9 9 8 8 8 8 8 8 8 8 8 8 7 7 7 7 7 6 6 6 5 5 4 4 3 3 3 2 2 2 2 1 2 1 2 2 2
11 10 10 10 10 9 9 8 8 8 8 8 8 8 8 8 7 7 7 7 7 6 6 6 6 6 5 5 4 3 3 3 2 2 1 1 1 1 1 1 1 1 1
10 10 10 10 9 9 8 8 8 8 8 8 8 8 7 7 7 7 7 7 7 6 6 6 6 6 5 5 4 3 3 2 2 1 1 1 0 0 0 0 0 0 0
10 10 10 10 9 8 8 8 8 8 8 8 7 7 7 7 7 7 7 7 6 6 6 6 5 5 5 5 4 3 3 2 2 1 1 0 0 -0 -0 -0 -0 -0 -0
9 9 9 9 8 8 8 8 8 7 7 7 7 6 7 7 7 7 7 7 6 6 6 6 5 5 5 5 4 4 3 2 2 1 0 0 -0 -0 -1 -1 -1 -1 -0
8 8 8 8 7 7 7 7 7 7 7 6 6 6 6 6 7 7 7 7 7 7 6 6 5 5 5 4 4 4 3 2 2 1 0 -0 -0 -1 -1 -1 -1 -1 -1
8 7 7 7 7 7 7 6 6 6 6 6 5 5 4 6 7 7 8 7 7 7 6 6 5 5 5 4 4 3 3 2 2 1 -0 -1 -1 -1 -1 -1 -1 -1 -1
8 7 7 7 6 6 6 6 6 6 5 5 5 4 4 4 6 6 6 7 7 6 6 6 5 5 4 4 3 3 2 2 2 1 -0 -1 -1 -1 -1 -1 -1 -1 -1
8 7 7 6 6 6 5 5 5 5 5 4 4 4 4 4 3 4 5 5 5 5 5 5 5 4 4 3 3 3 2 2 1 1 -1 -1 -1 -1 -1 -1 -1 -1 -1
8 7 7 6 6 6 5 5 5 4 4 4 4 3 3 3 2 1 1 3 3 3 4 4 4 3 3 3 3 2 1 1 1 0 -1 -1 -2 -2 -2 -2 -2 -2 -2
8 7 7 6 6 5 5 5 5 4 4 4 3 3 2 2 1 1 0 1 1 2 2 2 2 2 2 2 2 1 1 0 0 -0 -1 -2 -2 -2 -2 -2 -2 -2 -2
7 7 6 6 6 5 5 5 4 4 4 3 3 3 2 2 2 1 -0 -0 -0 0 0 0 1 1 1 1 1 1 0 -0 -1 -1 -2 -2 -3 -3 -3 -3 -3 -3 -3
7 7 6 6 5 5 5 4 4 4 3 3 3 3 2 2 1 0 -0 -1 -2 -1 -1 -1 -1 -0 0 0 0 0 -1 -1 -1 -2 -2 -3 -3 -3 -3 -3 -3 -3 -3
7 6 6 5 5 5 4 4 3 3 3 3 3 3 2 2 1 0 -1 -1 -2 -3 -3 -2 -2 -2 -1 -1 -1 -1 -1 -1 -2 -2 -2 -3 -3 -4 -4 -4 -4 -4 -4
7 6 6 5 5 5 4 4 3 3 3 3 3 2 2 2 1 0 -1 -2 -3 -3 -4 -3 -3 -3 -2 -2 -2 -2 -2 -2 -2 -2 -3 -3 -4 -4 -4 -4 -4 -4 -4
6 6 5 5 5 4 4 3 3 3 3 2 2 2 2 1 1 -0 -1 -2 -3 -4 -5 -4 -4 -4 -4 -4 -3 -3 -3 -3 -3 -3 -3 -3 -4 -4 -4 -5 -5 -5 -5
5 5 5 5 4 4 4 3 3 3 2 2 2 2 1 1 1 -0 -1 -2 -3 -3 -4 -5 -5 -5 -5 -4 -4 -4 -4 -4 -3 -3 -3 -4 -4 -4 -5 -5 -5 -5 -5
5 5 4 4 4 4 3 3 3 2 2 2 1 1 1 0 0 -0 -1 -2 -2 -3 -4 -5 -5 -5 -5 -5 -5 -5 -4 -4 -4 -4 -4 -4 -4 -5 -5 -5 -5 -5 -6
4 4 3 3 3 3 3 3 2 2 1 1 1 0 0 -0 -0 -1 -1 -2 -2 -4 -5 -5 -6 -6 -6 -6 -6 -6 -5 -4 -4 -4 -4 -5 -5 -5 -5 -6 -6 -6 -6
3 3 3 3 2 2 2 2 1 1 1 1 0 0 -0 -1 -1 -2 -2 -3 -4 -4 -5 -6 -7 -7 -7 -7 -6 -6 -6 -5 -5 -5 -5 -5 -5 -5 -5 -5 -5 -6 -6
2 2 2 2 1 1 1 1 0 -0 -0 -0 -0 -0 -0 -1 -2 -3 -4 -4 -5 -5 -6 -6 -7 -7 -7 -7 -6 -6 -6 -6 -6 -5 -5 -5 -6 -6 -5 -5 -6 -6 -7
1 1 1 0 0 0 0 -0 -0 -1 -1 -1 -1 -1 -1 -1 -2 -3 -3 -4 -4 -5 -5 -6 -6 -7 -7 -6 -6 -6 -7 -7 -6 -6 -7 -7 -7 -7 -6 -6 -6 -7 -7
-0 -0 -0 -1 -1 -0 -1 -1 -1 -1 -2 -2 -1 -2 -2 -2 -3 -3 -4 -4 -5 -5 -5 -5 -6 -6 -6 -6 -6 -6 -7 -7 -7 -7 -7 -8 -7 -7 -7 -7 -7 -7 -7
-1 -1 -1 -1 -1 -1 -1 -1 -2 -2 -2 -2 -2 -2 -3 -3 -3 -4 -5 -5 -5 -5 -5 -6 -6 -6 -6 -6 -6 -7 -7 -7 -8 -7 -7 -8 -7 -8 -8 -7 -7 -7 -8
-2 -2 -2 -2 -2 -2 -2 -2 -2 -3 -3 -3 -3 -3 -3 -4 -4 -4 -5 -6 -6 -6 -6 -6 -6 -6 -6 -6 -6 -6 -7 -7 -7 -7 -7 -8 -8 -8 -9 -8 -8 -8 -8

GEFSMA_850_meantemp_084.txt.gz
Temperature
10 10 10 9 9 9 9 9 8 8 8 8 8 8 8 8 8 8 8 8 8 8 7 7 6 6 5 5 5 5 5 5 5 5 5 5 5 4 4 4 4 4 3
9 9 9 9 9 9 8 8 8 8 8 8 8 8 8 8 8 8 8 8 8 7 7 7 6 5 5 5 4 4 5 5 4 4 4 4 4 4 4 4 3 3 3
9 9 9 9 9 8 8 8 8 8 8 8 8 8 8 8 8 8 7 7 7 7 7 7 7 6 5 4 4 4 4 4 4 4 4 4 3 3 3 3 3 3 3
9 8 8 8 8 8 7 7 7 7 7 7 7 7 7 7 7 7 7 7 7 7 7 7 7 7 6 5 4 4 4 3 3 3 3 3 3 3 3 3 3 2 2
8 8 8 8 8 7 7 7 7 7 7 7 7 7 7 7 7 7 7 7 7 7 7 7 7 7 7 6 5 4 4 3 3 3 3 3 3 3 2 2 2 2 2
8 8 8 8 7 7 7 7 7 7 6 6 6 6 6 7 7 7 7 7 7 7 7 7 7 7 7 6 6 5 4 3 3 3 3 3 2 2 2 2 2 2 1
9 8 8 8 7 7 7 7 6 6 6 6 5 5 6 6 6 7 7 7 8 8 8 8 7 7 7 7 6 6 5 4 3 3 3 2 2 2 2 2 1 1 1
9 8 8 8 7 7 7 6 6 6 6 5 5 4 4 5 6 7 7 7 8 8 8 8 8 7 7 7 6 6 5 5 4 3 3 2 2 2 2 1 1 1 1
9 8 8 8 7 7 6 6 6 5 5 5 5 4 3 4 4 5 5 5 5 6 6 6 7 7 7 7 6 6 5 5 4 3 3 2 2 2 1 1 1 1 1
8 8 8 7 7 6 6 6 6 5 5 4 4 4 4 3 3 3 4 4 4 4 4 5 5 5 5 6 6 6 5 5 5 4 3 2 2 1 1 1 1 1 1
8 8 7 7 7 6 6 6 5 5 5 4 4 4 3 3 2 1 1 2 3 4 4 4 4 4 4 4 4 5 5 5 4 4 3 2 1 1 1 1 1 1 0
8 8 7 7 6 6 6 6 5 5 4 4 4 3 3 2 2 2 1 1 2 3 3 3 3 3 3 3 3 3 3 4 3 3 3 2 1 1 1 1 0 0 0
8 8 7 7 6 6 6 5 5 4 4 3 3 3 3 3 2 2 1 0 0 1 2 2 2 3 2 2 2 2 2 2 2 2 2 1 1 1 0 0 -0 -0 -0
7 7 7 6 6 6 5 5 5 4 4 3 3 3 3 2 2 2 1 1 -1 -1 -0 1 1 2 2 2 2 1 1 1 1 1 0 0 0 0 -0 -0 -0 -1 -1
6 6 6 6 6 6 5 5 4 4 4 3 3 3 2 2 2 2 1 1 -1 -3 -1 -0 0 1 1 1 1 1 1 0 -0 -0 -1 -1 -1 -1 -1 -1 -1 -1 -1
6 6 6 5 5 5 5 4 4 4 3 3 3 2 2 2 2 1 1 0 -1 -2 -3 -1 -1 -0 -0 -0 0 -0 -0 -1 -1 -1 -2 -2 -2 -2 -2 -2 -2 -2 -2
5 5 5 5 5 5 4 4 4 3 3 3 2 2 2 2 1 1 0 -0 -1 -2 -3 -2 -2 -2 -2 -1 -1 -1 -1 -2 -2 -2 -2 -3 -3 -3 -3 -3 -2 -2 -2
5 5 4 4 4 4 3 3 3 2 2 2 2 1 1 1 0 -0 -1 -1 -1 -2 -3 -3 -2 -3 -2 -2 -2 -2 -2 -3 -3 -3 -3 -4 -4 -3 -3 -3 -3 -3 -3
4 4 4 3 3 3 2 2 2 1 1 1 1 1 1 -0 -0 -1 -1 -1 -2 -2 -3 -4 -3 -3 -4 -3 -3 -3 -3 -3 -4 -4 -4 -4 -4 -4 -4 -4 -4 -3 -3
3 3 3 2 2 1 1 1 1 0 0 0 0 -0 -1 -1 -1 -1 -2 -2 -2 -3 -3 -4 -4 -4 -4 -4 -5 -4 -4 -4 -4 -4 -5 -5 -5 -5 -5 -4 -4 -4 -4
2 2 1 1 1 0 0 -0 -1 -1 -1 -1 -1 -1 -1 -1 -2 -2 -2 -2 -3 -3 -4 -5 -5 -5 -5 -5 -5 -4 -5 -5 -5 -5 -5 -5 -5 -5 -5 -5 -4 -4 -4
1 1 1 0 -0 -0 -1 -1 -2 -2 -2 -3 -2 -2 -2 -2 -2 -2 -2 -3 -3 -3 -4 -4 -5 -5 -5 -5 -5 -5 -6 -6 -7 -6 -6 -6 -6 -6 -5 -5 -5 -4 -4
1 0 -0 -1 -1 -1 -2 -2 -3 -3 -3 -3 -3 -3 -3 -3 -3 -3 -3 -3 -3 -3 -3 -3 -4 -4 -4 -4 -5 -5 -6 -6 -6 -6 -6 -6 -6 -6 -5 -5 -5 -5 -5
-1 -1 -1 -2 -2 -2 -3 -3 -4 -4 -4 -4 -4 -3 -3 -3 -3 -3 -3 -3 -3 -3 -3 -3 -3 -4 -4 -4 -4 -5 -5 -6 -6 -6 -7 -7 -7 -6 -6 -5 -5 -5 -5
-1 -2 -2 -3 -3 -3 -3 -4 -4 -4 -4 -4 -4 -4 -4 -4 -3 -4 -4 -4 -4 -4 -4 -4 -4 -4 -4 -4 -5 -5 -6 -7 -7 -7 -7 -7 -7 -6 -6 -6 -5 -5 -5
-3 -3 -3 -3 -4 -3 -4 -4 -4 -4 -4 -4 -4 -4 -4 -4 -4 -4 -4 -4 -4 -4 -4 -4 -4 -5 -5 -5 -5 -5 -6 -6 -7 -7 -7 -7 -7 -7 -7 -6 -5 -5 -5

GEFSMA_850_meantemp_090.txt.gz
Temperature
9 9 9 8 8 8 8 8 8 8 8 8 8 8 8 8 8 8 9 9 8 8 8 8 8 7 6 6 6 6 6 7 7 7 7 7 7 7 7 7 7 7 7
9 8 8 8 8 8 8 8 7 7 7 8 8 8 8 8 8 8 8 9 9 8 8 8 8 8 7 6 6 6 6 6 6 6 6 6 6 6 6 6 6 6 6
8 8 8 8 8 8 8 7 7 7 7 7 7 8 8 8 8 8 8 8 9 9 9 8 8 8 8 7 6 6 5 5 6 6 6 6 6 6 6 6 6 6 5
8 8 8 8 7 7 7 7 7 7 7 7 7 7 7 7 8 8 8 8 8 9 9 9 8 8 8 8 7 7 6 5 5 5 5 5 5 5 5 5 5 5 5
8 8 7 7 7 7 7 7 7 6 6 6 6 6 6 6 7 7 8 8 8 8 9 9 9 8 8 8 8 7 7 6 5 5 5 5 5 5 5 5 5 4 4
8 8 8 7 7 7 7 7 7 6 6 6 6 5 6 6 6 7 8 8 8 8 8 8 8 9 8 8 8 8 7 6 6 5 5 5 5 5 5 5 4 4 4
9 8 8 8 7 7 7 7 6 6 6 5 5 5 5 5 6 7 7 8 8 8 8 8 8 8 8 8 8 8 8 7 6 5 5 5 5 4 4 4 4 4 4
9 8 8 8 7 7 7 7 6 6 6 5 5 4 4 5 6 5 6 6 7 7 7 7 8 8 8 8 8 8 8 7 6 5 5 5 4 4 4 4 4 4 4
9 9 8 8 8 7 7 7 7 6 6 5 4 4 3 5 5 5 4 5 5 5 5 6 6 7 6 7 7 7 7 7 6 5 5 4 4 4 4 4 4 4 4
9 9 8 8 8 7 7 7 7 6 5 5 4 4 3 3 2 3 4 4 4 4 4 4 5 5 5 6 6 6 6 6 6 6 5 4 4 4 4 4 4 4 4
8 8 8 8 7 7 7 7 6 6 5 5 5 4 3 2 2 1 2 3 4 4 3 3 3 3 4 5 5 6 6 6 6 6 5 4 4 4 4 4 4 4 4
8 7 7 7 7 7 7 6 6 6 6 5 5 4 3 2 2 1 1 2 3 3 3 3 2 2 3 3 4 5 5 5 5 5 5 4 4 3 3 4 4 4 4
7 7 7 6 6 6 6 6 6 6 5 5 5 4 3 3 2 2 1 1 2 2 2 2 2 2 2 2 3 4 4 4 4 4 4 4 3 3 3 3 3 3 3
6 6 6 6 6 6 6 5 5 5 5 4 4 4 3 3 2 2 1 0 0 1 2 2 2 2 1 2 2 2 3 3 3 3 3 3 2 2 2 2 2 3 3
6 6 6 6 5 5 5 5 4 4 4 3 3 3 2 2 2 1 1 -0 -1 -1 1 2 2 2 1 1 1 1 1 1 2 2 2 1 1 1 1 1 1 1 2
5 5 5 5 5 5 4 4 4 3 3 2 2 2 1 1 1 0 -0 -1 -1 -2 -1 1 1 1 0 -0 -1 -1 -0 -0 0 0 0 0 -0 -0 -0 -0 0 1 1
5 5 4 4 4 4 3 3 3 2 2 1 1 1 0 0 -0 -1 -1 -1 -2 -2 -2 -1 -0 -0 -1 -1 -2 -2 -2 -2 -1 -1 -1 -1 -1 -1 -1 -1 -1 -0 0
4 4 4 4 3 3 3 2 1 1 0 0 -0 -0 -1 -1 -1 -2 -2 -2 -2 -2 -3 -2 -2 -1 -2 -2 -2 -3 -3 -3 -2 -2 -2 -2 -2 -2 -2 -1 -1 -1 -1
4 3 3 3 3 2 2 1 1 0 -0 -1 -1 -1 -2 -2 -2 -2 -3 -3 -3 -3 -3 -3 -3 -2 -3 -3 -3 -3 -3 -4 -3 -3 -3 -3 -3 -3 -3 -2 -2 -1 -1
3 3 3 2 2 2 1 1 0 -0 -1 -1 -2 -2 -3 -3 -3 -3 -3 -3 -3 -3 -3 -3 -3 -3 -3 -3 -3 -4 -4 -4 -4 -4 -4 -4 -3 -3 -3 -3 -2 -2 -2
2 2 2 2 1 1 1 -0 -1 -2 -2 -3 -3 -3 -3 -3 -3 -4 -4 -3 -3 -3 -3 -3 -3 -3 -3 -4 -4 -4 -4 -4 -4 -4 -4 -4 -4 -4 -4 -3 -3 -3 -3
2 1 1 0 0 -0 -0 -1 -2 -3 -4 -4 -4 -4 -4 -4 -4 -4 -4 -3 -3 -3 -3 -3 -3 -3 -3 -3 -3 -4 -4 -4 -4 -4 -4 -4 -4 -4 -4 -4 -4 -4 -3
1 0 -0 -1 -1 -1 -1 -2 -3 -4 -4 -5 -5 -4 -4 -4 -4 -4 -4 -4 -4 -4 -3 -3 -3 -3 -3 -3 -3 -4 -4 -4 -4 -4 -5 -5 -5 -5 -5 -5 -5 -4 -4
-1 -1 -1 -2 -2 -2 -2 -3 -4 -5 -5 -5 -5 -5 -5 -4 -4 -4 -4 -4 -4 -4 -4 -4 -4 -4 -4 -3 -4 -4 -4 -4 -4 -4 -5 -5 -5 -5 -5 -5 -5 -5 -5
-2 -2 -2 -3 -3 -3 -3 -4 -5 -5 -5 -5 -5 -5 -5 -5 -4 -4 -4 -4 -4 -4 -4 -4 -4 -4 -4 -4 -4 -4 -4 -4 -5 -5 -5 -5 -6 -6 -6 -6 -6 -5 -5
-3 -3 -3 -4 -4 -4 -4 -5 -5 -6 -5 -5 -5 -5 -5 -5 -4 -4 -4 -4 -4 -4 -4 -4 -4 -4 -4 -4 -4 -4 -4 -4 -5 -5 -5 -6 -6 -6 -6 -6 -6 -6 -5

GEFSMA_850_meantemp_096.txt.gz
Temperature
8 8 8 8 8 8 8 8 8 8 8 8 8 9 9 9 9 10 10 10 10 10 10 10 10 10 10 10 10 10 9 9 10 10 10 10 10 10 10 10 10 10 10
8 8 8 8 8 8 7 7 7 7 7 7 7 8 8 8 9 9 9 10 10 10 10 10 10 10 10 10 10 10 9 9 9 9 9 9 9 9 10 10 10 10 9
8 8 8 8 7 7 7 7 7 7 7 7 7 7 7 8 8 8 8 9 9 10 10 10 10 10 10 10 10 9 9 9 9 8 8 8 8 8 9 9 9 9 9
8 8 8 8 7 7 7 7 7 7 7 7 7 7 7 7 7 8 8 8 9 9 9 10 10 10 10 9 9 9 9 9 8 8 8 8 8 8 8 8 8 8 8
8 8 8 8 7 7 7 7 7 7 7 7 6 6 7 7 7 7 8 8 8 9 9 9 9 9 9 9 9 8 8 8 8 8 7 7 7 7 7 7 7 7 7
8 8 8 8 7 7 7 7 7 6 6 6 6 6 7 7 7 8 8 8 8 8 8 8 8 8 8 8 8 8 7 7 7 7 7 6 6 6 6 6 6 7 7
8 8 8 8 7 7 7 7 6 6 6 6 5 6 6 7 8 8 8 8 8 8 7 7 7 7 7 8 7 7 7 7 6 6 6 6 6 6 6 6 6 6 6
8 8 8 8 8 7 7 7 7 6 6 6 5 4 4 6 7 7 7 7 7 7 7 6 6 6 6 6 7 7 7 7 6 6 6 6 5 5 6 6 6 6 6
9 8 8 8 8 7 7 7 7 6 6 6 5 4 4 4 4 5 6 6 6 6 6 6 5 5 5 5 6 6 6 6 6 6 5 5 5 5 5 5 6 6 6
8 8 8 8 7 7 7 7 6 6 5 5 5 5 4 4 3 3 4 5 5 5 5 5 5 5 5 5 5 5 5 5 5 5 5 4 4 4 5 5 5 6 6
8 8 7 7 7 7 7 6 6 6 6 5 5 5 4 4 3 2 2 4 4 5 5 4 4 4 4 4 4 4 4 4 4 4 4 3 3 3 4 4 5 5 5
7 7 7 7 7 7 6 6 6 6 5 5 5 4 4 3 3 3 2 2 2 3 3 3 3 4 4 4 4 4 4 3 3 3 3 3 3 3 3 3 4 4 5
7 7 6 6 6 6 6 6 5 5 5 5 5 4 4 3 3 3 2 2 1 2 2 2 3 3 3 3 3 3 3 3 3 3 2 2 2 2 2 2 2 3 4
7 6 6 6 6 6 6 5 5 5 5 4 4 4 3 3 3 2 2 1 1 1 1 1 2 2 2 2 2 2 2 2 2 2 2 1 1 1 1 1 1 2 2
6 6 6 6 6 6 5 5 5 4 4 3 3 3 2 2 2 2 1 1 0 -0 -0 0 0 1 1 1 1 1 1 1 1 1 1 1 0 0 0 0 0 1 1
6 6 6 5 5 5 5 4 4 4 3 3 2 2 2 1 1 1 0 0 -0 -0 -1 -0 -0 -1 -1 -1 -1 -1 -0 -0 0 0 0 -0 -0 -1 -1 -1 -1 -0 0
5 5 5 5 5 4 4 4 3 3 2 2 2 1 1 0 -0 -0 -1 -1 -1 -1 -1 -1 -1 -1 -2 -2 -2 -2 -1 -1 -1 -1 -1 -1 -1 -1 -1 -1 -1 -1 -1
5 5 4 4 4 4 3 3 2 2 1 1 1 0 -0 -1 -1 -1 -2 -2 -2 -2 -2 -2 -2 -2 -2 -2 -3 -2 -2 -2 -2 -2 -2 -2 -2 -2 -2 -2 -2 -1 -1
4 4 4 3 3 3 2 2 1 1 0 -0 -1 -1 -1 -2 -2 -2 -3 -3 -3 -3 -3 -3 -3 -3 -3 -3 -3 -3 -3 -3 -2 -2 -2 -2 -2 -2 -2 -2 -2 -2 -2
4 3 3 3 2 2 2 1 0 -0 -1 -1 -1 -2 -3 -3 -3 -4 -4 -4 -4 -4 -4 -4 -4 -4 -4 -3 -3 -3 -3 -3 -3 -3 -3 -3 -3 -3 -3 -3 -3 -2 -2
3 3 2 2 2 1 1 -0 -1 -1 -2 -2 -3 -3 -4 -4 -4 -4 -4 -4 -4 -4 -4 -4 -4 -4 -4 -4 -4 -4 -4 -3 -3 -3 -3 -3 -3 -3 -3 -3 -3 -3 -3
2 2 2 1 1 0 -0 -1 -2 -2 -3 -3 -3 -4 -4 -4 -5 -5 -5 -4 -4 -4 -4 -4 -4 -4 -4 -4 -4 -4 -4 -4 -4 -4 -3 -3 -3 -3 -3 -3 -3 -3 -3
2 1 1 0 -0 -0 -1 -2 -2 -3 -3 -4 -4 -5 -5 -5 -5 -5 -5 -5 -5 -4 -4 -4 -4 -4 -4 -4 -4 -4 -4 -4 -4 -4 -4 -4 -4 -4 -3 -3 -3 -3 -3
1 0 -0 -0 -1 -1 -2 -3 -3 -4 -4 -4 -5 -5 -5 -5 -5 -5 -5 -5 -4 -4 -4 -4 -4 -4 -4 -4 -4 -4 -4 -4 -4 -4 -4 -4 -4 -4 -4 -3 -3 -4 -4
-0 -0 -1 -1 -2 -2 -2 -3 -4 -4 -4 -5 -5 -5 -5 -5 -5 -5 -5 -4 -4 -4 -4 -4 -4 -4 -4 -4 -4 -4 -4 -4 -4 -4 -4 -4 -4 -4 -4 -4 -4 -4 -4
-1 -1 -2 -2 -2 -3 -3 -4 -5 -5 -5 -5 -5 -5 -5 -5 -5 -5 -5 -5 -5 -5 -4 -4 -4 -4 -4 -4 -4 -4 -4 -4 -4 -4 -4 -4 -4 -4 -4 -4 -4 -4 -4

GEFSMA_850_meantemp_102.txt.gz
Temperature
9 8 8 8 8 8 8 8 8 8 8 8 8 8 8 8 8 8 8 8 8 9 9 9 8 8 8 8 8 8 8 8 8 8 8 8 8 9 9 9 9 9 10
8 8 8 8 8 8 7 7 8 7 7 7 7 7 7 7 7 8 8 8 8 8 8 8 8 8 7 7 7 7 7 7 7 7 7 7 7 7 8 8 8 8 8
8 8 8 8 8 7 7 7 7 7 7 7 7 7 7 7 7 7 8 8 8 8 8 8 8 7 7 7 7 7 7 7 7 7 7 7 7 7 7 7 7 7 7
8 8 8 8 8 7 7 7 7 7 7 7 6 6 7 7 7 7 8 8 8 8 8 8 8 7 7 7 6 6 6 6 6 6 6 6 6 6 6 7 7 7 7
8 8 8 8 7 7 7 7 7 6 6 6 6 6 7 7 7 8 8 8 8 8 8 8 8 7 7 7 6 6 6 6 6 6 6 6 6 6 6 6 6 7 7
8 8 8 8 7 7 7 7 7 6 6 6 6 6 6 7 7 8 8 8 8 8 7 7 7 7 7 7 6 6 6 6 5 5 5 5 5 5 6 6 6 6 6
8 8 8 8 7 7 7 7 6 6 6 6 5 6 7 7 8 7 7 7 7 7 6 6 6 6 6 6 6 6 5 5 5 5 5 5 5 5 5 5 6 6 6
8 8 8 7 7 7 7 7 6 6 6 6 5 4 4 5 6 6 6 6 6 6 6 6 5 5 5 5 5 5 5 5 4 4 4 4 4 4 4 4 5 5 6
8 8 8 7 7 7 7 6 6 6 6 6 5 4 3 3 3 4 5 5 5 5 5 5 5 5 5 5 5 5 5 4 4 3 3 3 4 4 4 4 4 4 5
8 8 8 7 7 7 7 6 6 6 5 5 5 5 4 3 2 2 3 4 4 4 4 4 4 5 4 4 4 4 4 3 3 3 3 3 3 3 3 3 4 4 4
8 8 7 7 7 7 6 6 6 6 5 5 5 4 4 3 3 2 1 2 3 3 3 3 3 4 4 3 3 3 3 3 2 2 2 2 3 3 3 3 3 3 3
8 7 7 7 7 6 6 6 6 5 5 5 4 4 3 3 3 2 1 1 1 2 2 2 3 3 3 2 2 2 1 1 1 1 1 1 2 2 2 2 3 3 3
8 7 7 7 6 6 6 6 5 5 5 4 4 4 3 3 2 1 1 0 -0 0 1 1 2 2 2 1 1 1 0 0 0 0 0 1 1 1 1 2 2 2 2
7 7 6 6 6 6 5 5 5 5 4 4 4 3 3 2 2 1 0 -0 -1 -1 -1 -1 0 0 0 -0 -0 -1 -1 -1 -1 -1 -1 -0 -0 -0 0 1 1 1 1
7 6 6 6 5 5 5 5 4 4 4 3 3 3 2 2 1 1 -0 -1 -2 -3 -2 -2 -2 -1 -1 -1 -1 -2 -2 -2 -2 -2 -2 -2 -1 -1 -1 -1 -0 0 0
6 6 5 5 5 5 4 4 4 4 3 3 3 2 2 1 1 0 -1 -1 -2 -3 -4 -3 -3 -3 -2 -2 -2 -2 -3 -3 -3 -2 -2 -2 -2 -2 -2 -1 -1 -1 -0
6 5 5 5 5 4 4 4 3 3 3 2 2 1 1 0 -0 -1 -1 -2 -2 -3 -4 -4 -4 -4 -4 -4 -3 -3 -3 -3 -3 -3 -3 -3 -3 -2 -2 -2 -2 -1 -1
5 5 4 4 4 4 3 3 3 2 2 1 1 0 0 -1 -1 -2 -2 -3 -3 -4 -4 -5 -4 -4 -4 -4 -4 -4 -3 -3 -3 -3 -3 -3 -3 -3 -3 -2 -2 -2 -2
5 4 4 4 3 3 3 2 2 1 1 0 -0 -1 -1 -2 -2 -3 -3 -4 -4 -4 -5 -5 -5 -5 -5 -4 -4 -4 -4 -4 -4 -3 -3 -3 -3 -3 -3 -3 -3 -2 -2
4 4 3 3 3 2 2 1 1 1 0 -0 -1 -1 -2 -3 -3 -4 -4 -4 -5 -5 -5 -5 -5 -5 -5 -5 -4 -4 -4 -4 -4 -4 -4 -3 -3 -3 -3 -3 -3 -3 -3
3 3 3 2 2 2 1 1 0 -0 -1 -1 -1 -2 -3 -3 -4 -4 -5 -5 -5 -5 -5 -5 -5 -5 -5 -5 -5 -5 -5 -5 -4 -4 -4 -3 -3 -3 -3 -3 -3 -3 -3
3 2 2 2 1 1 0 -0 -1 -1 -2 -2 -2 -3 -3 -4 -4 -5 -5 -5 -5 -5 -5 -5 -5 -5 -5 -5 -5 -5 -5 -5 -5 -5 -4 -4 -4 -4 -3 -3 -3 -3 -3
2 2 2 1 1 0 -0 -1 -1 -2 -2 -3 -3 -3 -4 -4 -5 -5 -5 -5 -5 -5 -5 -5 -5 -5 -5 -5 -5 -5 -5 -5 -5 -5 -5 -5 -4 -4 -4 -4 -3 -3 -3
2 1 1 0 0 -0 -1 -1 -2 -3 -3 -3 -4 -4 -5 -5 -5 -5 -6 -6 -5 -5 -5 -5 -5 -5 -5 -5 -5 -5 -5 -5 -5 -4 -4 -5 -4 -4 -4 -4 -4 -4 -4
1 1 0 -0 -1 -1 -1 -2 -3 -3 -4 -4 -4 -5 -5 -5 -6 -6 -6 -6 -6 -5 -5 -5 -5 -5 -5 -5 -5 -5 -5 -5 -5 -5 -5 -5 -5 -5 -4 -4 -4 -4 -3
0 0 -0 -1 -1 -1 -2 -2 -3 -4 -4 -5 -5 -5 -6 -6 -6 -6 -6 -6 -6 -6 -6 -6 -6 -5 -6 -5 -5 -6 -6 -6 -6 -5 -5 -5 -5 -5 -5 -4 -4 -4 -4

GEFSMA_850_meantemp_108.txt.gz
Temperature
8 8 8 8 7 7 7 7 7 7 7 7 7 7 7 7 7 7 8 8 8 8 8 8 7 7 7 7 7 7 7 7 7 7 7 7 7 7 7 7 7 7 7
8 8 8 8 8 7 7 7 7 7 7 7 7 7 7 7 7 7 7 7 7 7 8 8 8 7 7 7 7 7 7 7 7 7 7 7 7 7 7 7 7 7 7
8 8 8 8 8 7 7 7 7 7 7 7 7 7 7 7 7 7 7 8 8 8 8 8 8 8 7 7 6 6 6 6 6 6 6 6 6 7 7 7 7 7 7
8 8 8 8 8 7 7 7 7 7 7 6 6 7 7 7 7 8 8 8 8 8 7 7 7 7 7 7 7 6 6 6 6 6 6 6 6 6 6 7 7 7 7
9 8 8 8 8 7 7 7 7 7 6 6 7 7 7 7 8 8 8 7 7 7 7 7 7 7 7 7 7 6 6 6 6 6 5 5 5 5 6 6 6 6 7
8 8 8 8 7 7 7 7 7 7 6 6 6 7 7 8 8 8 8 7 7 7 7 7 7 7 7 6 6 6 6 6 6 6 5 5 5 5 5 5 5 5 6
8 8 8 8 7 7 7 7 7 6 6 6 6 7 7 8 8 7 7 7 7 7 7 6 6 6 6 6 6 6 6 6 6 5 5 5 5 5 4 4 5 5 5
8 8 8 8 7 7 7 7 6 6 6 6 6 5 6 6 6 7 7 7 7 6 6 6 6 6 6 6 6 6 6 6 6 5 5 4 4 4 4 4 4 4 4
8 8 8 8 7 7 7 7 6 6 6 6 5 5 4 4 4 5 5 6 6 6 6 5 6 6 6 5 5 5 5 5 5 5 4 3 3 3 3 4 4 4 4
8 8 8 8 7 7 7 7 6 6 6 6 5 5 4 3 2 3 4 5 5 5 5 5 5 5 5 5 5 5 4 4 4 4 3 3 2 2 2 3 3 3 4
8 8 8 7 7 7 7 6 6 6 6 5 5 4 4 4 3 2 2 4 4 5 4 4 4 4 4 4 4 4 3 3 3 3 2 2 2 2 2 2 2 2 3
8 8 8 7 7 7 6 6 6 5 5 5 4 4 4 3 3 2 1 2 2 3 4 4 4 4 3 3 3 2 2 2 2 2 1 1 1 1 1 1 1 1 2
8 8 7 7 7 6 6 6 5 5 5 5 4 4 3 3 2 2 1 1 1 2 2 3 3 2 2 2 2 1 1 1 1 0 0 0 0 0 0 -0 0 0 1
8 8 7 7 6 6 6 5 5 5 4 4 4 4 3 3 2 1 1 -0 -1 -1 -0 1 1 1 1 0 1 1 0 0 -0 -1 -1 -1 -1 -1 -1 -1 -1 -1 -0
8 7 7 6 6 6 5 5 5 4 4 4 3 3 3 2 2 1 0 -1 -2 -3 -3 -2 -1 -0 -1 -0 -0 -0 -1 -1 -2 -2 -2 -2 -2 -2 -2 -2 -2 -1 -1
7 7 6 6 6 5 5 5 4 4 4 3 3 3 2 2 1 1 -0 -1 -2 -3 -4 -3 -3 -2 -2 -2 -2 -2 -2 -2 -3 -3 -3 -3 -3 -3 -3 -2 -2 -2 -2
7 6 6 6 5 5 5 4 4 3 3 3 2 2 2 1 1 0 -1 -1 -2 -3 -4 -4 -4 -4 -4 -3 -3 -3 -3 -3 -3 -3 -3 -4 -4 -3 -3 -3 -3 -3 -2
6 6 5 5 5 4 4 4 3 3 3 2 2 1 1 0 0 -0 -1 -2 -2 -3 -4 -4 -4 -4 -5 -5 -5 -4 -4 -4 -4 -4 -4 -4 -4 -4 -3 -3 -3 -3 -3
6 5 5 5 4 4 4 3 3 3 2 2 1 1 0 -0 -1 -1 -2 -2 -3 -3 -4 -5 -5 -5 -5 -5 -5 -5 -5 -5 -4 -4 -4 -4 -4 -4 -4 -4 -3 -3 -3
5 5 5 4 4 4 3 3 2 2 2 1 1 0 -0 -1 -1 -2 -2 -3 -4 -4 -5 -5 -6 -6 -6 -5 -6 -6 -6 -5 -5 -5 -4 -4 -4 -4 -4 -4 -4 -4 -3
5 5 4 4 4 3 3 2 2 1 1 1 0 -0 -1 -1 -2 -3 -4 -4 -5 -5 -5 -6 -6 -6 -6 -6 -6 -6 -6 -6 -6 -5 -5 -4 -4 -4 -4 -4 -4 -4 -4
4 4 4 3 3 3 2 2 1 1 0 -0 -1 -1 -1 -2 -2 -3 -4 -4 -5 -5 -6 -6 -6 -6 -6 -6 -6 -6 -6 -6 -6 -5 -5 -5 -5 -5 -4 -4 -4 -4 -4
4 4 3 3 3 2 2 1 1 -0 -0 -1 -1 -2 -2 -2 -3 -3 -4 -4 -5 -5 -6 -6 -6 -6 -6 -6 -6 -6 -6 -6 -6 -6 -6 -6 -5 -5 -5 -4 -4 -4 -4
4 3 3 2 2 2 1 1 0 -0 -1 -1 -2 -2 -3 -3 -3 -4 -4 -5 -5 -5 -6 -6 -6 -6 -6 -6 -6 -6 -6 -6 -6 -6 -6 -6 -6 -5 -5 -5 -5 -4 -4
3 3 2 2 2 1 1 0 -0 -1 -1 -2 -2 -3 -3 -4 -4 -5 -6 -6 -6 -6 -6 -6 -6 -6 -6 -6 -6 -6 -6 -7 -7 -6 -6 -7 -6 -6 -5 -5 -5 -5 -5
2 2 2 1 1 1 0 -0 -1 -2 -2 -2 -3 -3 -4 -4 -5 -5 -6 -6 -6 -6 -6 -6 -6 -6 -6 -6 -6 -7 -7 -7 -7 -7 -7 -7 -7 -7 -6 -6 -5 -5 -5

GEFSMA_850_meantemp_114.txt.gz
Temperature
9 8 8 8 8 8 8 8 7 7 7 7 7 7 7 7 7 7 7 8 8 8 8 8 8 8 8 8 8 8 8 8 8 8 8 8 8 8 8 8 8 8 8
9 8 8 8 8 8 8 7 7 7 7 7 7 7 7 7 7 7 7 8 8 8 8 8 8 8 8 7 7 7 7 7 7 7 7 7 7 7 7 7 8 8 8
9 8 8 8 8 8 8 7 7 7 7 7 7 7 7 7 7 7 7 8 8 8 8 8 8 8 8 7 7 7 7 7 7 7 7 7 7 7 7 7 7 7 8
9 8 8 8 8 8 8 8 7 7 7 7 7 7 7 7 7 7 7 7 7 7 7 8 8 7 7 7 7 7 7 7 6 6 6 6 6 6 7 7 7 7 7
9 9 8 8 8 8 8 8 7 7 7 7 7 7 7 7 8 8 7 7 7 7 7 7 7 7 7 7 7 7 7 6 6 6 6 6 6 6 6 6 6 6 6
9 9 8 8 8 8 8 7 7 7 7 7 7 7 7 8 8 7 7 7 7 7 7 7 6 6 7 7 7 7 7 6 6 6 5 5 5 5 5 5 5 5 5
9 9 9 8 8 8 8 7 7 7 7 7 7 7 7 7 7 7 7 6 6 6 6 6 6 6 6 6 6 6 6 6 6 5 5 4 4 4 4 4 4 4 5
9 9 8 8 8 8 8 7 7 7 7 7 6 6 6 7 6 7 6 6 6 6 6 6 5 6 6 6 6 6 6 6 6 5 4 4 4 3 3 4 4 4 4
9 9 9 8 8 8 8 8 7 7 6 7 6 6 5 6 5 5 5 5 5 5 5 5 5 5 5 5 5 5 5 5 5 5 4 3 3 3 3 3 3 3 3
9 9 9 8 8 8 8 8 7 7 7 6 6 6 5 4 4 4 5 4 4 5 5 5 5 5 5 5 5 5 5 5 4 4 3 3 2 2 2 2 2 2 2
9 9 9 9 8 8 8 8 7 7 7 6 5 5 5 4 4 3 3 4 4 4 4 4 4 4 4 4 4 4 4 4 3 3 3 3 2 2 1 1 1 1 2
9 9 9 9 8 8 8 7 7 7 6 6 5 5 4 4 3 2 2 2 2 3 3 4 4 3 3 3 3 3 3 3 3 2 2 2 2 1 1 1 1 1 1
9 9 9 8 8 8 7 7 7 6 6 6 5 5 4 4 3 3 2 1 1 2 2 2 2 2 2 2 2 2 2 2 2 1 1 1 1 0 0 -0 -0 -0 -0
9 9 9 8 8 8 7 7 6 6 6 5 5 4 4 4 3 2 2 1 0 1 1 1 1 1 1 1 1 1 1 0 0 0 -0 -0 -0 -1 -1 -1 -1 -1 -1
9 9 9 8 8 7 7 6 6 6 5 5 5 4 4 3 3 2 1 0 -1 -1 -0 0 -0 0 -0 -0 0 -0 -1 -1 -1 -1 -1 -1 -2 -2 -2 -2 -2 -2 -2
9 9 8 8 7 7 7 6 6 5 5 4 4 4 3 3 2 2 1 0 -1 -2 -2 -1 -1 -1 -1 -1 -1 -1 -1 -2 -2 -2 -2 -2 -3 -3 -3 -3 -3 -3 -3
9 9 8 8 7 7 6 6 5 5 4 4 4 3 3 2 2 1 1 0 -1 -1 -2 -2 -2 -2 -2 -2 -2 -2 -2 -3 -3 -3 -3 -3 -3 -3 -4 -4 -3 -3 -3
9 8 8 7 7 6 6 5 5 4 4 4 3 3 2 2 1 1 0 -0 -1 -2 -2 -3 -2 -3 -3 -3 -3 -3 -4 -4 -4 -4 -4 -4 -4 -4 -4 -4 -4 -4 -4
8 8 7 7 6 6 5 5 4 4 4 3 3 2 2 1 1 0 -0 -1 -1 -2 -3 -3 -3 -4 -4 -4 -4 -5 -5 -5 -5 -5 -4 -4 -4 -4 -4 -4 -4 -4 -4
8 7 7 6 6 5 5 4 4 4 3 3 3 2 2 1 1 -0 -1 -1 -2 -3 -3 -4 -4 -4 -5 -5 -5 -5 -5 -5 -5 -5 -5 -5 -5 -5 -5 -4 -4 -4 -4
7 7 6 6 5 5 4 4 4 3 3 2 2 2 1 1 0 -0 -1 -2 -3 -3 -4 -4 -5 -5 -5 -5 -5 -5 -5 -5 -5 -5 -5 -5 -5 -5 -5 -5 -5 -5 -5
7 6 6 5 5 4 4 3 3 3 2 2 1 1 0 -0 -0 -1 -1 -2 -3 -4 -4 -5 -5 -5 -5 -5 -6 -6 -6 -6 -6 -6 -6 -6 -6 -6 -6 -6 -5 -5 -5
6 6 5 5 4 4 3 3 3 2 1 1 1 0 -0 -0 -1 -2 -2 -3 -3 -3 -4 -5 -5 -5 -6 -6 -6 -6 -6 -6 -6 -6 -6 -6 -6 -6 -6 -6 -6 -6 -5
6 5 5 4 4 3 3 3 2 2 1 1 0 -0 -1 -1 -2 -2 -3 -3 -4 -4 -4 -5 -5 -5 -6 -6 -6 -6 -6 -6 -6 -6 -6 -7 -6 -6 -6 -6 -6 -6 -6
5 5 4 4 3 3 3 2 2 1 0 0 -0 -1 -1 -2 -2 -3 -4 -4 -4 -5 -5 -5 -5 -6 -6 -6 -6 -6 -7 -7 -7 -7 -7 -7 -7 -7 -7 -6 -6 -6 -6
5 4 4 3 3 3 2 2 1 0 -0 -1 -1 -1 -2 -2 -3 -3 -4 -5 -5 -5 -5 -6 -6 -6 -6 -6 -6 -7 -7 -7 -8 -8 -7 -7 -7 -8 -7 -7 -6 -6 -6

GEFSMA_850_meantemp_120.txt.gz
Temperature
9 9 9 9 8 8 8 8 8 8 8 8 8 8 8 8 8 8 8 8 8 8 8 8 8 8 8 7 7 7 7 7 7 7 7 7 8 8 8 8 8 8 8
9 9 9 9 9 8 8 8 8 8 8 8 8 8 8 8 8 8 7 7 8 8 8 8 8 8 7 7 7 7 7 7 7 7 7 7 7 7 7 7 7 7 7
9 9 9 9 9 8 8 8 8 8 8 8 8 8 8 8 8 7 7 7 8 8 8 8 8 8 7 7 7 7 7 7 7 7 6 6 6 6 6 6 6 7 7
9 9 9 9 9 8 8 8 8 8 8 8 8 8 8 8 8 7 7 7 7 7 8 8 7 7 7 7 7 7 7 7 6 6 6 6 6 6 6 6 6 6 6
9 9 9 9 8 8 8 8 8 8 8 8 8 8 8 8 8 8 7 7 7 7 7 7 7 7 7 7 6 6 6 6 6 5 5 5 5 5 5 5 5 5 5
9 9 9 9 9 8 8 8 8 8 8 8 8 8 8 8 8 8 7 7 7 7 7 6 6 6 6 6 6 6 6 6 5 5 5 4 4 4 4 4 4 4 4
9 9 9 9 9 9 8 8 8 8 8 8 8 8 8 8 8 7 7 7 6 6 6 6 5 6 6 6 6 6 6 5 5 4 4 4 4 4 3 4 4 4 4
10 9 9 9 9 9 9 8 8 8 8 7 7 7 7 7 7 7 7 7 6 6 6 5 5 5 5 5 5 5 5 5 5 4 4 3 3 3 3 3 3 3 3
10 10 9 9 9 9 9 8 8 8 8 7 7 7 7 6 7 7 6 6 6 6 5 5 5 5 5 5 5 5 5 4 4 3 3 3 3 3 2 2 2 2 2
10 10 9 9 9 9 9 8 8 8 8 7 7 7 6 6 6 6 6 6 5 5 5 5 5 5 5 4 4 4 4 4 4 3 3 2 2 2 2 2 2 2 2
10 10 9 9 9 9 9 8 8 8 8 7 7 7 6 6 5 5 5 6 6 5 5 5 5 5 4 4 4 4 3 3 3 3 3 2 2 1 1 1 1 1 1
10 10 9 9 9 9 9 9 8 8 8 7 7 7 6 6 5 4 4 4 5 5 5 5 5 4 3 3 3 3 3 3 2 2 2 1 1 1 0 0 0 0 0
10 10 10 9 9 9 9 9 8 8 8 7 7 7 6 6 5 4 4 4 4 4 5 5 4 3 3 2 2 2 2 1 1 1 1 0 0 -0 -0 -0 -1 -1 -1
11 10 10 9 9 9 9 9 8 8 8 7 7 6 6 5 5 4 4 3 3 3 3 4 3 3 2 1 1 1 1 0 0 -0 -1 -1 -1 -1 -1 -2 -2 -2 -2
10 10 10 9 9 9 9 8 8 8 7 7 6 6 6 5 5 4 4 3 2 1 2 3 3 2 1 1 1 0 0 -0 -1 -1 -1 -2 -2 -2 -3 -3 -3 -3 -3
10 10 10 9 9 9 9 8 8 7 7 7 6 6 5 5 4 4 3 3 2 1 0 2 2 1 1 1 0 -0 -0 -1 -1 -1 -1 -2 -3 -3 -3 -3 -3 -3 -3
10 10 10 10 9 9 9 8 8 7 7 6 6 5 5 5 4 4 3 3 2 1 0 1 1 1 0 -0 -0 -1 -1 -1 -2 -2 -2 -3 -3 -3 -4 -4 -4 -4 -4
10 10 10 10 9 9 8 8 7 7 7 6 6 5 5 4 4 3 3 2 2 1 -0 -0 0 -0 -1 -1 -1 -2 -2 -3 -3 -3 -3 -4 -4 -4 -4 -4 -4 -4 -4
10 10 9 9 9 9 8 8 7 7 6 6 5 5 4 4 3 3 2 2 1 1 -0 -1 -1 -1 -1 -2 -2 -3 -3 -3 -4 -4 -4 -4 -4 -4 -4 -4 -5 -5 -5
10 9 9 9 9 8 8 7 7 6 6 5 5 4 4 4 3 3 2 1 1 0 -0 -1 -1 -1 -2 -2 -3 -4 -4 -4 -4 -4 -5 -5 -5 -5 -5 -5 -5 -5 -5
9 9 9 9 8 8 7 7 6 6 5 5 4 4 4 3 3 2 1 1 0 -0 -1 -1 -2 -2 -3 -3 -4 -4 -5 -5 -5 -5 -5 -5 -5 -5 -5 -5 -5 -5 -5
9 9 9 8 8 8 7 6 6 6 5 5 4 4 3 3 2 2 1 0 -0 -1 -1 -2 -3 -3 -3 -4 -4 -5 -5 -6 -6 -5 -6 -6 -6 -6 -5 -6 -6 -6 -6
8 8 8 8 7 7 7 6 5 5 5 4 4 3 3 2 2 1 1 0 -1 -1 -2 -3 -3 -3 -4 -4 -5 -5 -5 -6 -6 -6 -6 -6 -6 -6 -6 -6 -6 -6 -6
8 8 8 7 7 7 6 5 5 4 4 4 3 3 2 2 1 0 -0 -1 -1 -1 -2 -3 -3 -4 -4 -5 -5 -6 -6 -6 -6 -6 -6 -7 -6 -7 -6 -6 -6 -6 -6
8 7 7 7 6 6 6 5 4 4 3 3 3 2 1 1 1 -0 -1 -1 -2 -2 -2 -3 -4 -4 -5 -5 -5 -6 -6 -6 -6 -6 -7 -7 -7 -7 -7 -6 -6 -6 -7
7 7 6 6 6 6 5 4 4 3 3 3 2 1 1 0 -0 -1 -1 -2 -2 -2 -3 -4 -4 -5 -5 -5 -6 -6 -7 -7 -7 -7 -7 -8 -8 -8 -8 -7 -7 -7 -7